| time (UTC) | temp C | wind direction | speed KPH | gust KPH | rain 1hr cm | rain 24hr cm | rain mn cm | humidity % | barometer mb |
| 20260906044649 | 24 | 319 | 3.2 | 14.5 | 0.00 | 0.00 | 0.00 | 86 | 1016.1 |
| 20260906044638 | 24 | 278 | 3.2 | 14.5 | 0.00 | 0.00 | 0.00 | 86 | 1016.1 |
| 20260906044421 | 24 | 319 | 3.2 | 14.5 | 0.00 | 0.00 | 0.00 | 86 | 1016.1 |
| 20260906044317 | 24 | 319 | 3.2 | 14.5 | 0.00 | 0.00 | 0.00 | 86 | 1016.1 |
| 20260906044217 | 24 | 59 | 3.2 | 14.5 | 0.00 | 0.00 | 0.00 | 86 | 1016.1 |
| 20260906044117 | 24 | 324 | 3.2 | 14.5 | 0.00 | 0.00 | 0.00 | 86 | 1016.2 |
| 20260906044046 | 24 | 329 | 1.6 | 14.5 | 0.00 | 0.00 | 0.00 | 86 | 1016.2 |
| 20260906044032 | 24 | 317 | 1.6 | 14.5 | 0.00 | 0.00 | 0.00 | 86 | 1016.3 |
| 20260906043815 | 24 | 331 | 1.6 | 9.7 | 0.00 | 0.00 | 0.00 | 85 | 1016.1 |
| 20260906043715 | 24 | 355 | 1.6 | 4.8 | 0.00 | 0.00 | 0.00 | 85 | 1016.0 |
| 20260906043615 | 24 | 146 | 0.0 | 4.8 | 0.00 | 0.00 | 0.00 | 86 | 1016.0 |
| 20260906043515 | 24 | 145 | 0.0 | 4.8 | 0.00 | 0.00 | 0.00 | 85 | 1015.7 |
| 20260906043417 | 24 | 145 | 0.0 | 4.8 | 0.00 | 0.00 | 0.00 | 84 | 1015.4 |
| 20260906043340 | 24 | 145 | 1.6 | 4.8 | 0.00 | 0.00 | 0.00 | 83 | 1015.2 |
| 20260906043330 | 24 | 145 | 1.6 | 4.8 | 0.00 | 0.00 | 0.00 | 83 | 1015.2 |
| 20260906043114 | 24 | 145 | 1.6 | 4.8 | 0.00 | 0.00 | 0.00 | 84 | 1015.1 |
| 20260906043011 | 24 | 145 | 1.6 | 4.8 | 0.00 | 0.00 | 0.00 | 84 | 1015.2 |
| 20260906042909 | 24 | 145 | 1.6 | 4.8 | 0.00 | 0.00 | 0.00 | 84 | 1015.1 |
| 20260906042834 | 24 | 145 | 1.6 | 4.8 | 0.00 | 0.00 | 0.00 | 84 | 1015.1 |
| 20260906042822 | 24 | 145 | 1.6 | 4.8 | 0.00 | 0.00 | 0.00 | 84 | 1015.1 |
| 20260906042607 | 24 | 145 | 1.6 | 4.8 | 0.00 | 0.00 | 0.00 | 84 | 1015.2 |
| 20260906042536 | 24 | 146 | 1.6 | 4.8 | 0.00 | 0.00 | 0.00 | 84 | 1015.2 |
| 20260906042523 | 24 | 145 | 1.6 | 4.8 | 0.00 | 0.00 | 0.00 | 84 | 1015.2 |
| 20260906042329 | 24 | 146 | 1.6 | 4.8 | 0.00 | 0.00 | 0.00 | 84 | 1015.2 |
| 20260906042317 | 24 | 146 | 1.6 | 4.8 | 0.00 | 0.00 | 0.00 | 84 | 1015.2 |
| 20260906042102 | 24 | 146 | 1.6 | 4.8 | 0.00 | 0.00 | 0.00 | 84 | 1015.2 |
| 20260906042001 | 24 | 146 | 1.6 | 4.8 | 0.00 | 0.00 | 0.00 | 84 | 1015.3 |
| 20260906041924 | 24 | 146 | 0.0 | 4.8 | 0.00 | 0.00 | 0.00 | 84 | 1015.2 |
| 20260906041913 | 24 | 146 | 1.6 | 4.8 | 0.00 | 0.00 | 0.00 | 84 | 1015.2 |
| 20260906041722 | 24 | 146 | 1.6 | 3.2 | 0.00 | 0.00 | 0.00 | 84 | 1015.2 |
| 20260906041711 | 24 | 146 | 1.6 | 4.8 | 0.00 | 0.00 | 0.00 | 84 | 1015.2 |
| 20260906041514 | 24 | 146 | 0.0 | 3.2 | 0.00 | 0.00 | 0.00 | 84 | 1015.3 |
| 20260906041503 | 24 | 146 | 0.0 | 3.2 | 0.00 | 0.00 | 0.00 | 84 | 1015.3 |
| 20260906041446 | 24 | 146 | 0.0 | 3.2 | 0.00 | 0.00 | 0.00 | 84 | 1015.3 |
| 20260906041333 | 24 | 146 | 0.0 | 3.2 | 0.00 | 0.00 | 0.00 | 84 | 1015.3 |
| 20260906041319 | 24 | 146 | 0.0 | 3.2 | 0.00 | 0.00 | 0.00 | 84 | 1015.2 |
| 20260906041019 | 24 | 146 | 0.0 | 3.2 | 0.00 | 0.00 | 0.00 | 84 | 1015.3 |
| 20260906041006 | 24 | 146 | 0.0 | 3.2 | 0.00 | 0.00 | 0.00 | 84 | 1015.3 |
| 20260906040749 | 24 | 146 | 0.0 | 3.2 | 0.00 | 0.00 | 0.00 | 84 | 1015.3 |
| 20260906040649 | 24 | 146 | 0.0 | 3.2 | 0.00 | 0.00 | 0.00 | 84 | 1015.3 |
| 20260906040628 | 25 | 146 | 0.0 | 4.8 | 0.00 | 0.00 | 0.00 | 84 | 1015.4 |
| 20260906040623 | 24 | 146 | 0.0 | 4.8 | 0.00 | 0.00 | 0.00 | 84 | 1015.5 |
| 20260906040619 | 25 | 146 | 0.0 | 4.8 | 0.00 | 0.00 | 0.00 | 84 | 1015.5 |
| 20260906040613 | 25 | 146 | 0.0 | 4.8 | 0.00 | 0.00 | 0.00 | 84 | 1015.5 |
| 20260906040602 | 24 | 146 | 0.0 | 1.6 | 0.00 | 0.00 | 0.00 | 84 | 1015.4 |
| 20260906040546 | 24 | 146 | 0.0 | 4.8 | 0.00 | 0.00 | 0.00 | 84 | 1015.4 |
| 20260906040014 | 25 | 146 | 0.0 | 4.8 | 0.00 | 0.00 | 0.00 | 84 | 1015.4 |
| 20260906040002 | 25 | 146 | 0.0 | 4.8 | 0.00 | 0.00 | 0.00 | 84 | 1015.5 |
| 20260906035810 | 25 | 146 | 0.0 | 4.8 | 0.00 | 0.00 | 0.00 | 84 | 1015.5 |
| 20260906035759 | 25 | 146 | 0.0 | 4.8 | 0.00 | 0.00 | 0.00 | 84 | 1015.4 |
| 20260906035543 | 25 | 146 | 1.6 | 4.8 | 0.00 | 0.00 | 0.00 | 84 | 1015.7 |
| 20260906035442 | 25 | 146 | 1.6 | 4.8 | 0.00 | 0.00 | 0.00 | 84 | 1015.5 |
| 20260906035407 | 25 | 146 | 1.6 | 4.8 | 0.00 | 0.00 | 0.00 | 83 | 1015.5 |
| 20260906035355 | 25 | 146 | 1.6 | 4.8 | 0.00 | 0.00 | 0.00 | 83 | 1015.5 |
| 20260906035142 | 25 | 146 | 1.6 | 4.8 | 0.00 | 0.00 | 0.00 | 84 | 1015.5 |
| 20260906035101 | 25 | 146 | 0.0 | 4.8 | 0.00 | 0.00 | 0.00 | 83 | 1015.7 |
| 20260906035050 | 25 | 146 | 1.6 | 4.8 | 0.00 | 0.00 | 0.00 | 84 | 1015.7 |
| 20260906034835 | 25 | 146 | 0.0 | 4.8 | 0.00 | 0.00 | 0.00 | 83 | 1015.8 |
| 20260906034735 | 25 | 146 | 0.0 | 4.8 | 0.00 | 0.00 | 0.00 | 84 | 1015.8 |
| 20260906034636 | 25 | 146 | 0.0 | 4.8 | 0.00 | 0.00 | 0.00 | 84 | 1015.8 |
| 20260906034536 | 25 | 146 | 0.0 | 4.8 | 0.00 | 0.00 | 0.00 | 84 | 1015.8 |
| 20260906034434 | 25 | 146 | 0.0 | 4.8 | 0.00 | 0.00 | 0.00 | 84 | 1015.7 |
| 20260906034334 | 25 | 146 | 0.0 | 4.8 | 0.00 | 0.00 | 0.00 | 84 | 1015.7 |
| 20260906034232 | 25 | 146 | 0.0 | 4.8 | 0.00 | 0.00 | 0.00 | 83 | 1015.8 |
| 20260906034129 | 25 | 146 | 0.0 | 4.8 | 0.00 | 0.00 | 0.00 | 83 | 1015.5 |
| 20260906034056 | 25 | 146 | 0.0 | 4.8 | 0.00 | 0.00 | 0.00 | 83 | 1015.5 |
| 20260906034043 | 25 | 146 | 0.0 | 4.8 | 0.00 | 0.00 | 0.00 | 83 | 1015.4 |
| 20260906033826 | 25 | 146 | 0.0 | 4.8 | 0.00 | 0.00 | 0.00 | 83 | 1015.5 |
| 20260906033725 | 25 | 146 | 1.6 | 4.8 | 0.00 | 0.00 | 0.00 | 83 | 1015.4 |
| 20260906033649 | 25 | 146 | 1.6 | 4.8 | 0.00 | 0.00 | 0.00 | 83 | 1015.4 |
| 20260906033638 | 25 | 146 | 1.6 | 4.8 | 0.00 | 0.00 | 0.00 | 83 | 1015.5 |
| 20260906033422 | 25 | 146 | 1.6 | 4.8 | 0.00 | 0.00 | 0.00 | 83 | 1015.5 |
| 20260906033320 | 25 | 146 | 1.6 | 4.8 | 0.00 | 0.00 | 0.00 | 83 | 1015.4 |
| 20260906033219 | 25 | 146 | 1.6 | 4.8 | 0.00 | 0.00 | 0.00 | 83 | 1015.4 |
| 20260906033117 | 25 | 146 | 3.2 | 4.8 | 0.00 | 0.00 | 0.00 | 83 | 1015.4 |
| 20260906033057 | 25 | 146 | 3.2 | 4.8 | 0.00 | 0.00 | 0.00 | 82 | 1015.3 |
| 20260906033052 | 25 | 146 | 1.6 | 4.8 | 0.00 | 0.00 | 0.00 | 82 | 1015.4 |
| 20260906033047 | 25 | 146 | 1.6 | 4.8 | 0.00 | 0.00 | 0.00 | 82 | 1015.3 |
| 20260906033044 | 25 | 146 | 1.6 | 4.8 | 0.00 | 0.00 | 0.00 | 82 | 1015.3 |
| 20260906033032 | 25 | 146 | 3.2 | 4.8 | 0.00 | 0.00 | 0.00 | 83 | 1015.5 |
| 20260906032857 | 25 | 146 | 1.6 | 4.8 | 0.00 | 0.00 | 0.00 | 82 | 1015.4 |
| 20260906032412 | 25 | 147 | 1.6 | 6.4 | 0.00 | 0.00 | 0.00 | 82 | 1015.2 |
| 20260906032311 | 25 | 146 | 1.6 | 6.4 | 0.00 | 0.00 | 0.00 | 82 | 1015.3 |
| 20260906032211 | 25 | 146 | 1.6 | 6.4 | 0.00 | 0.00 | 0.00 | 82 | 1015.3 |
| 20260906032112 | 25 | 146 | 1.6 | 6.4 | 0.00 | 0.00 | 0.00 | 82 | 1015.3 |
| 20260906032011 | 25 | 146 | 1.6 | 6.4 | 0.00 | 0.00 | 0.00 | 82 | 1015.2 |
| 20260906031911 | 25 | 146 | 1.6 | 6.4 | 0.00 | 0.00 | 0.00 | 82 | 1015.3 |
| 20260906031811 | 25 | 146 | 1.6 | 6.4 | 0.00 | 0.00 | 0.00 | 82 | 1015.3 |
| 20260906031711 | 25 | 146 | 1.6 | 6.4 | 0.00 | 0.00 | 0.00 | 82 | 1015.3 |
| 20260906031610 | 25 | 146 | 1.6 | 6.4 | 0.00 | 0.00 | 0.00 | 82 | 1015.3 |
| 20260906031511 | 25 | 146 | 3.2 | 6.4 | 0.00 | 0.00 | 0.00 | 82 | 1015.3 |
| 20260906031438 | 25 | 146 | 3.2 | 8.0 | 0.00 | 0.00 | 0.00 | 83 | 1015.3 |
| 20260906031426 | 25 | 146 | 3.2 | 6.4 | 0.00 | 0.00 | 0.00 | 83 | 1015.3 |
| 20260906031212 | 25 | 145 | 3.2 | 8.0 | 0.00 | 0.00 | 0.00 | 83 | 1015.2 |
| 20260906031110 | 25 | 145 | 3.2 | 8.0 | 0.00 | 0.00 | 0.00 | 83 | 1015.4 |
| 20260906031011 | 25 | 145 | 1.6 | 8.0 | 0.00 | 0.00 | 0.00 | 82 | 1015.3 |
| 20260906030912 | 25 | 145 | 1.6 | 8.0 | 0.00 | 0.00 | 0.00 | 82 | 1015.2 |
| 20260906030811 | 25 | 145 | 1.6 | 8.0 | 0.00 | 0.00 | 0.00 | 82 | 1015.3 |
| 20260906030711 | 25 | 146 | 1.6 | 8.0 | 0.00 | 0.00 | 0.00 | 82 | 1015.3 |
| 20260906030640 | 25 | 130 | 1.6 | 8.0 | 0.00 | 0.00 | 0.00 | 84 | 1015.4 |
| 20260906030627 | 25 | 145 | 1.6 | 8.0 | 0.00 | 0.00 | 0.00 | 83 | 1015.4 |
| 20260906030407 | 25 | 129 | 0.0 | 8.0 | 0.00 | 0.00 | 0.00 | 84 | 1015.4 |
| 20260906030334 | 25 | 128 | 0.0 | 1.6 | 0.00 | 0.00 | 0.00 | 83 | 1015.4 |
| 20260906030322 | 25 | 128 | 0.0 | 3.2 | 0.00 | 0.00 | 0.00 | 83 | 1015.4 |
| 20260906030106 | 25 | 128 | 0.0 | 1.6 | 0.00 | 0.00 | 0.00 | 81 | 1015.3 |
| 20260906030008 | 25 | 128 | 0.0 | 0.0 | 0.00 | 0.00 | 0.00 | 81 | 1015.3 |
| 20260906025908 | 25 | 128 | 0.0 | 0.0 | 0.00 | 0.00 | 0.00 | 81 | 1015.3 |
| 20260906025808 | 25 | 128 | 0.0 | 0.0 | 0.00 | 0.00 | 0.00 | 81 | 1015.3 |
| 20260906025708 | 25 | 128 | 0.0 | 0.0 | 0.00 | 0.00 | 0.00 | 81 | 1015.3 |
| 20260906025608 | 25 | 128 | 0.0 | 0.0 | 0.00 | 0.00 | 0.00 | 81 | 1015.3 |
| 20260906025508 | 25 | 128 | 0.0 | 1.6 | 0.00 | 0.00 | 0.00 | 81 | 1015.3 |
| 20260906025407 | 25 | 128 | 0.0 | 3.2 | 0.00 | 0.00 | 0.00 | 81 | 1015.3 |
| 20260906025307 | 25 | 128 | 0.0 | 3.2 | 0.00 | 0.00 | 0.00 | 81 | 1015.3 |
| 20260906025231 | 25 | 128 | 0.0 | 3.2 | 0.00 | 0.00 | 0.00 | 81 | 1015.2 |
| 20260906025221 | 25 | 128 | 0.0 | 3.2 | 0.00 | 0.00 | 0.00 | 81 | 1015.2 |
| 20260906025008 | 25 | 128 | 0.0 | 3.2 | 0.00 | 0.00 | 0.00 | 82 | 1015.2 |
| 20260906024908 | 25 | 128 | 0.0 | 3.2 | 0.00 | 0.00 | 0.00 | 82 | 1015.1 |
| 20260906024808 | 25 | 128 | 0.0 | 3.2 | 0.00 | 0.00 | 0.00 | 82 | 1015.1 |
| 20260906024708 | 25 | 128 | 0.0 | 3.2 | 0.00 | 0.00 | 0.00 | 82 | 1015.2 |
| 20260906024606 | 25 | 128 | 0.0 | 3.2 | 0.00 | 0.00 | 0.00 | 82 | 1015.1 |
| 20260906024507 | 25 | 128 | 0.0 | 3.2 | 0.00 | 0.00 | 0.00 | 82 | 1015.1 |
| 20260906024407 | 25 | 128 | 0.0 | 3.2 | 0.00 | 0.00 | 0.00 | 82 | 1015.2 |
| 20260906024306 | 25 | 128 | 0.0 | 3.2 | 0.00 | 0.00 | 0.00 | 82 | 1015.1 |
| 20260906024207 | 25 | 128 | 0.0 | 3.2 | 0.00 | 0.00 | 0.00 | 82 | 1015.2 |
| 20260906024108 | 25 | 128 | 0.0 | 3.2 | 0.00 | 0.00 | 0.00 | 82 | 1015.2 |
| 20260906024007 | 25 | 128 | 0.0 | 3.2 | 0.00 | 0.00 | 0.00 | 82 | 1015.1 |
| 20260906023908 | 25 | 128 | 0.0 | 3.2 | 0.00 | 0.00 | 0.00 | 82 | 1015.2 |
| 20260906023800 | 25 | 128 | 0.0 | 3.2 | 0.00 | 0.00 | 0.00 | 82 | 1015.2 |
| 20260906023659 | 25 | 128 | 0.0 | 3.2 | 0.00 | 0.00 | 0.00 | 82 | 1015.2 |
| 20260906023600 | 25 | 128 | 0.0 | 3.2 | 0.00 | 0.00 | 0.00 | 83 | 1015.2 |
| 20260906023459 | 25 | 128 | 0.0 | 3.2 | 0.00 | 0.00 | 0.00 | 83 | 1015.2 |
| 20260906023424 | 25 | 128 | 0.0 | 3.2 | 0.00 | 0.00 | 0.00 | 83 | 1015.2 |
| 20260906023413 | 25 | 128 | 0.0 | 3.2 | 0.00 | 0.00 | 0.00 | 83 | 1015.2 |
| 20260906023200 | 25 | 128 | 0.0 | 3.2 | 0.00 | 0.00 | 0.00 | 83 | 1015.2 |
| 20260906023126 | 25 | 128 | 0.0 | 6.4 | 0.00 | 0.00 | 0.00 | 84 | 1015.2 |
| 20260906023114 | 25 | 128 | 0.0 | 6.4 | 0.00 | 0.00 | 0.00 | 83 | 1015.1 |
| 20260906022900 | 25 | 128 | 0.0 | 6.4 | 0.00 | 0.00 | 0.00 | 83 | 1015.1 |
| 20260906022800 | 25 | 128 | 0.0 | 6.4 | 0.00 | 0.00 | 0.00 | 83 | 1015.1 |
| 20260906022658 | 25 | 128 | 1.6 | 6.4 | 0.00 | 0.00 | 0.00 | 83 | 1015.2 |
| 20260906022600 | 25 | 128 | 1.6 | 6.4 | 0.00 | 0.00 | 0.00 | 83 | 1015.2 |
| 20260906022459 | 25 | 128 | 1.6 | 6.4 | 0.00 | 0.00 | 0.00 | 83 | 1015.2 |
| 20260906022400 | 25 | 128 | 1.6 | 6.4 | 0.00 | 0.00 | 0.00 | 83 | 1015.2 |
| 20260906022327 | 25 | 128 | 1.6 | 6.4 | 0.00 | 0.00 | 0.00 | 83 | 1015.1 |
| 20260906022315 | 25 | 128 | 1.6 | 6.4 | 0.00 | 0.00 | 0.00 | 83 | 1015.2 |
| 20260906022059 | 25 | 128 | 1.6 | 6.4 | 0.00 | 0.00 | 0.00 | 83 | 1015.1 |
| 20260906021959 | 25 | 128 | 3.2 | 6.4 | 0.00 | 0.00 | 0.00 | 83 | 1015.1 |
| 20260906021859 | 25 | 128 | 3.2 | 6.4 | 0.00 | 0.00 | 0.00 | 84 | 1014.9 |
| 20260906021824 | 25 | 140 | 1.6 | 6.4 | 0.00 | 0.00 | 0.00 | 84 | 1014.9 |
| 20260906021814 | 25 | 128 | 3.2 | 6.4 | 0.00 | 0.00 | 0.00 | 84 | 1015.0 |
| 20260906021559 | 25 | 140 | 1.6 | 6.4 | 0.00 | 0.00 | 0.00 | 84 | 1014.9 |
| 20260906021525 | 25 | 139 | 1.6 | 6.4 | 0.00 | 0.00 | 0.00 | 84 | 1014.9 |
| 20260906021514 | 25 | 140 | 1.6 | 6.4 | 0.00 | 0.00 | 0.00 | 84 | 1014.8 |
| 20260906021300 | 25 | 138 | 1.6 | 6.4 | 0.00 | 0.00 | 0.00 | 84 | 1014.8 |
| 20260906021156 | 25 | 137 | 1.6 | 6.4 | 0.00 | 0.00 | 0.00 | 84 | 1014.9 |
| 20260906021055 | 25 | 327 | 1.6 | 6.4 | 0.00 | 0.00 | 0.00 | 84 | 1014.8 |
| 20260906021021 | 25 | 326 | 0.0 | 3.2 | 0.00 | 0.00 | 0.00 | 84 | 1014.8 |
| 20260906021009 | 25 | 327 | 0.0 | 6.4 | 0.00 | 0.00 | 0.00 | 84 | 1014.8 |
| 20260906020751 | 25 | 326 | 0.0 | 3.2 | 0.00 | 0.00 | 0.00 | 84 | 1014.8 |
| 20260906020644 | 25 | 326 | 0.0 | 3.2 | 0.00 | 0.00 | 0.00 | 83 | 1014.8 |
| 20260906020543 | 25 | 326 | 0.0 | 3.2 | 0.00 | 0.00 | 0.00 | 82 | 1014.7 |
| 20260906020443 | 25 | 326 | 0.0 | 3.2 | 0.00 | 0.00 | 0.00 | 81 | 1014.5 |
| 20260906020342 | 25 | 326 | 0.0 | 3.2 | 0.00 | 0.00 | 0.00 | 81 | 1014.6 |
| 20260906020241 | 25 | 326 | 0.0 | 3.2 | 0.00 | 0.00 | 0.00 | 81 | 1014.6 |
| 20260906020141 | 25 | 326 | 0.0 | 3.2 | 0.00 | 0.00 | 0.00 | 82 | 1014.5 |
| 20260906020040 | 25 | 326 | 0.0 | 3.2 | 0.00 | 0.00 | 0.00 | 82 | 1014.4 |
| 20260906015939 | 25 | 326 | 0.0 | 3.2 | 0.00 | 0.00 | 0.00 | 82 | 1014.4 |
| 20260906015903 | 25 | 326 | 0.0 | 3.2 | 0.00 | 0.00 | 0.00 | 82 | 1014.4 |
| 20260906015851 | 25 | 326 | 0.0 | 3.2 | 0.00 | 0.00 | 0.00 | 82 | 1014.4 |
| 20260906015633 | 25 | 326 | 0.0 | 3.2 | 0.00 | 0.00 | 0.00 | 82 | 1014.4 |
| 20260906015534 | 25 | 326 | 0.0 | 3.2 | 0.00 | 0.00 | 0.00 | 82 | 1014.4 |
| 20260906015432 | 25 | 326 | 0.0 | 3.2 | 0.00 | 0.00 | 0.00 | 82 | 1014.4 |
| 20260906015332 | 25 | 326 | 0.0 | 3.2 | 0.00 | 0.00 | 0.00 | 82 | 1014.4 |
| 20260906015229 | 25 | 326 | 0.0 | 3.2 | 0.00 | 0.00 | 0.00 | 82 | 1014.3 |
| 20260906015119 | 25 | 326 | 0.0 | 3.2 | 0.00 | 0.00 | 0.00 | 82 | 1014.4 |
| 20260906015020 | 25 | 326 | 0.0 | 3.2 | 0.00 | 0.00 | 0.00 | 82 | 1014.3 |
| 20260906014920 | 25 | 326 | 0.0 | 3.2 | 0.00 | 0.00 | 0.00 | 82 | 1014.2 |
| 20260906014818 | 25 | 326 | 0.0 | 3.2 | 0.00 | 0.00 | 0.00 | 82 | 1014.3 |
| 20260906014743 | 26 | 326 | 0.0 | 1.6 | 0.00 | 0.00 | 0.00 | 82 | 1014.1 |
| 20260906014730 | 26 | 326 | 0.0 | 3.2 | 0.00 | 0.00 | 0.00 | 82 | 1014.1 |
| 20260906014601 | 26 | 326 | 0.0 | 6.4 | 0.00 | 0.00 | 0.00 | 81 | 1014.2 |
| 20260906014544 | 26 | 326 | 0.0 | 6.4 | 0.00 | 0.00 | 0.00 | 82 | 1014.2 |
| 20260906014428 | 26 | 326 | 0.0 | 6.4 | 0.00 | 0.00 | 0.00 | 81 | 1014.2 |
| 20260906014418 | 26 | 326 | 0.0 | 6.4 | 0.00 | 0.00 | 0.00 | 82 | 1014.2 |
| 20260906014400 | 26 | 326 | 0.0 | 6.4 | 0.00 | 0.00 | 0.00 | 81 | 1014.2 |
| 20260906014237 | 26 | 326 | 0.0 | 6.4 | 0.00 | 0.00 | 0.00 | 81 | 1014.2 |
| 20260906013908 | 26 | 326 | 1.6 | 6.4 | 0.00 | 0.00 | 0.00 | 81 | 1014.2 |
| 20260906013806 | 26 | 326 | 1.6 | 6.4 | 0.00 | 0.00 | 0.00 | 81 | 1014.2 |
| 20260906013703 | 26 | 326 | 1.6 | 6.4 | 0.00 | 0.00 | 0.00 | 81 | 1014.1 |
| 20260906013555 | 26 | 326 | 1.6 | 6.4 | 0.00 | 0.00 | 0.00 | 81 | 1014.1 |
| 20260906013454 | 26 | 326 | 1.6 | 12.9 | 0.00 | 0.00 | 0.00 | 81 | 1014.2 |
| 20260906013353 | 26 | 326 | 1.6 | 12.9 | 0.00 | 0.00 | 0.00 | 81 | 1014.1 |
| 20260906013255 | 26 | 326 | 1.6 | 12.9 | 0.00 | 0.00 | 0.00 | 81 | 1014.1 |
| 20260906013154 | 26 | 326 | 3.2 | 12.9 | 0.00 | 0.00 | 0.00 | 81 | 1014.2 |
| 20260906013050 | 26 | 326 | 3.2 | 12.9 | 0.00 | 0.00 | 0.00 | 80 | 1014.1 |
| 20260906012949 | 26 | 326 | 3.2 | 12.9 | 0.00 | 0.00 | 0.00 | 80 | 1014.3 |
| 20260906012848 | 26 | 326 | 3.2 | 12.9 | 0.00 | 0.00 | 0.00 | 79 | 1014.4 |
| 20260906012748 | 26 | 326 | 3.2 | 12.9 | 0.00 | 0.00 | 0.00 | 79 | 1014.4 |
| 20260906012648 | 26 | 326 | 3.2 | 12.9 | 0.00 | 0.00 | 0.00 | 79 | 1014.5 |
| 20260906012616 | 26 | 0 | 3.2 | 12.9 | 0.00 | 0.00 | 0.00 | 79 | 1014.5 |
| 20260906012603 | 26 | 327 | 3.2 | 12.9 | 0.00 | 0.00 | 0.00 | 79 | 1014.6 |
| 20260906012344 | 26 | 342 | 3.2 | 16.1 | 0.00 | 0.00 | 0.00 | 79 | 1014.5 |
| 20260906012244 | 26 | 0 | 3.2 | 16.1 | 0.00 | 0.00 | 0.00 | 79 | 1014.4 |
| 20260906012141 | 26 | 0 | 3.2 | 16.1 | 0.00 | 0.00 | 0.00 | 79 | 1014.3 |
| 20260906012128 | 26 | 0 | 4.8 | 16.1 | 0.00 | 0.00 | 0.00 | 79 | 1014.2 |
| 20260906012123 | 26 | 0 | 4.8 | 16.1 | 0.00 | 0.00 | 0.00 | 78 | 1014.3 |
| 20260906012105 | 26 | 0 | 4.8 | 16.1 | 0.00 | 0.00 | 0.00 | 79 | 1014.2 |
| 20260906011800 | 26 | 0 | 3.2 | 16.1 | 0.00 | 0.00 | 0.00 | 78 | 1014.5 |
| 20260906011745 | 26 | 0 | 3.2 | 16.1 | 0.00 | 0.00 | 0.00 | 78 | 1014.4 |
| 20260906011529 | 26 | 334 | 3.2 | 16.1 | 0.00 | 0.00 | 0.00 | 79 | 1014.7 |
| 20260906011429 | 26 | 30 | 1.6 | 16.1 | 0.00 | 0.00 | 0.00 | 79 | 1014.8 |
| 20260906011329 | 26 | 325 | 1.6 | 12.9 | 0.00 | 0.00 | 0.00 | 79 | 1014.8 |
| 20260906011228 | 26 | 319 | 1.6 | 8.0 | 0.00 | 0.00 | 0.00 | 80 | 1014.8 |
| 20260906011125 | 26 | 130 | 0.0 | 4.8 | 0.00 | 0.00 | 0.00 | 80 | 1014.7 |
| 20260906011025 | 26 | 134 | 0.0 | 4.8 | 0.00 | 0.00 | 0.00 | 78 | 1014.6 |
| 20260906010923 | 26 | 134 | 0.0 | 4.8 | 0.00 | 0.00 | 0.00 | 78 | 1014.4 |
| 20260906010823 | 26 | 134 | 0.0 | 4.8 | 0.00 | 0.00 | 0.00 | 78 | 1014.3 |
| 20260906010744 | 26 | 134 | 1.6 | 4.8 | 0.00 | 0.00 | 0.00 | 78 | 1014.3 |
| 20260906010735 | 26 | 134 | 0.0 | 4.8 | 0.00 | 0.00 | 0.00 | 78 | 1014.3 |
| 20260906010514 | 26 | 138 | 1.6 | 4.8 | 0.00 | 0.00 | 0.00 | 78 | 1014.2 |
| 20260906010414 | 26 | 138 | 1.6 | 4.8 | 0.00 | 0.00 | 0.00 | 78 | 1014.3 |
| 20260906010314 | 26 | 138 | 1.6 | 4.8 | 0.00 | 0.00 | 0.00 | 78 | 1014.2 |
| 20260906010211 | 26 | 138 | 1.6 | 4.8 | 0.00 | 0.00 | 0.00 | 78 | 1014.3 |
| 20260906010110 | 26 | 138 | 1.6 | 4.8 | 0.00 | 0.00 | 0.00 | 78 | 1014.3 |
| 20260906010034 | 26 | 138 | 1.6 | 4.8 | 0.00 | 0.00 | 0.00 | 77 | 1014.3 |
| 20260906010022 | 26 | 138 | 1.6 | 4.8 | 0.00 | 0.00 | 0.00 | 77 | 1014.3 |
| 20260906005807 | 26 | 138 | 1.6 | 4.8 | 0.00 | 0.00 | 0.00 | 77 | 1014.4 |
| 20260906005705 | 26 | 138 | 1.6 | 4.8 | 0.00 | 0.00 | 0.00 | 77 | 1014.4 |
| 20260906005603 | 26 | 138 | 1.6 | 4.8 | 0.00 | 0.00 | 0.00 | 77 | 1014.4 |
| 20260906005459 | 26 | 136 | 1.6 | 4.8 | 0.00 | 0.00 | 0.00 | 77 | 1014.4 |
| 20260906005358 | 26 | 136 | 1.6 | 4.8 | 0.00 | 0.00 | 0.00 | 77 | 1014.4 |
| 20260906005258 | 26 | 136 | 1.6 | 4.8 | 0.00 | 0.00 | 0.00 | 77 | 1014.4 |
| 20260906005156 | 26 | 136 | 1.6 | 4.8 | 0.00 | 0.00 | 0.00 | 77 | 1014.4 |
| 20260906005058 | 26 | 136 | 1.6 | 4.8 | 0.00 | 0.00 | 0.00 | 77 | 1014.4 |
| 20260906005017 | 26 | 136 | 1.6 | 4.8 | 0.00 | 0.00 | 0.00 | 76 | 1014.4 |
| 20260906005004 | 26 | 136 | 1.6 | 4.8 | 0.00 | 0.00 | 0.00 | 77 | 1014.4 |
| 20260906004749 | 26 | 136 | 1.6 | 4.8 | 0.00 | 0.00 | 0.00 | 76 | 1014.3 |
| 20260906004715 | 26 | 136 | 1.6 | 4.8 | 0.00 | 0.00 | 0.00 | 76 | 1014.3 |
| 20260906004703 | 26 | 136 | 1.6 | 4.8 | 0.00 | 0.00 | 0.00 | 76 | 1014.3 |
| 20260906004514 | 27 | 136 | 1.6 | 3.2 | 0.00 | 0.00 | 0.00 | 77 | 1014.2 |
| 20260906004503 | 27 | 136 | 1.6 | 4.8 | 0.00 | 0.00 | 0.00 | 76 | 1014.3 |
| 20260906004245 | 27 | 136 | 1.6 | 4.8 | 0.00 | 0.00 | 0.00 | 77 | 1014.3 |
| 20260906004143 | 27 | 136 | 1.6 | 4.8 | 0.00 | 0.00 | 0.00 | 77 | 1014.4 |
| 20260906004043 | 27 | 136 | 1.6 | 4.8 | 0.00 | 0.00 | 0.00 | 76 | 1014.4 |
| 20260906004010 | 27 | 136 | 1.6 | 4.8 | 0.00 | 0.00 | 0.00 | 76 | 1014.5 |
| 20260906003959 | 27 | 136 | 1.6 | 4.8 | 0.00 | 0.00 | 0.00 | 76 | 1014.4 |
| 20260906003745 | 27 | 136 | 1.6 | 4.8 | 0.00 | 0.00 | 0.00 | 76 | 1014.3 |
| 20260906003641 | 27 | 136 | 1.6 | 4.8 | 0.00 | 0.00 | 0.00 | 76 | 1014.4 |
| 20260906003610 | 27 | 136 | 1.6 | 4.8 | 0.00 | 0.00 | 0.00 | 76 | 1014.4 |
| 20260906003557 | 27 | 136 | 1.6 | 4.8 | 0.00 | 0.00 | 0.00 | 76 | 1014.5 |
| 20260906003407 | 27 | 136 | 1.6 | 4.8 | 0.00 | 0.00 | 0.00 | 75 | 1014.3 |
| 20260906003356 | 27 | 136 | 1.6 | 4.8 | 0.00 | 0.00 | 0.00 | 76 | 1014.5 |
| 20260906003139 | 27 | 136 | 1.6 | 4.8 | 0.00 | 0.00 | 0.00 | 75 | 1014.4 |
| 20260906003040 | 27 | 136 | 1.6 | 4.8 | 0.00 | 0.00 | 0.00 | 75 | 1014.2 |
| 20260906002938 | 27 | 145 | 1.6 | 3.2 | 0.00 | 0.00 | 0.00 | 75 | 1014.3 |
| 20260906002835 | 27 | 145 | 1.6 | 3.2 | 0.00 | 0.00 | 0.00 | 75 | 1014.3 |
| 20260906002734 | 27 | 145 | 1.6 | 3.2 | 0.00 | 0.00 | 0.00 | 75 | 1014.3 |
| 20260906002633 | 27 | 145 | 1.6 | 3.2 | 0.00 | 0.00 | 0.00 | 75 | 1014.3 |
| 20260906002534 | 27 | 145 | 1.6 | 3.2 | 0.00 | 0.00 | 0.00 | 75 | 1014.3 |
| 20260906002456 | 27 | 148 | 0.0 | 3.2 | 0.00 | 0.00 | 0.00 | 74 | 1014.4 |
| 20260906002445 | 27 | 148 | 0.0 | 3.2 | 0.00 | 0.00 | 0.00 | 74 | 1014.4 |
| 20260906002259 | 28 | 148 | 0.0 | 3.2 | 0.00 | 0.00 | 0.00 | 73 | 1014.4 |
| 20260906002252 | 28 | 148 | 0.0 | 3.2 | 0.00 | 0.00 | 0.00 | 73 | 1014.5 |
| 20260906002241 | 27 | 148 | 0.0 | 3.2 | 0.00 | 0.00 | 0.00 | 74 | 1014.4 |
| 20260906002222 | 28 | 148 | 0.0 | 3.2 | 0.00 | 0.00 | 0.00 | 74 | 1014.4 |
| 20260906001944 | 28 | 148 | 0.0 | 3.2 | 0.00 | 0.00 | 0.00 | 73 | 1014.4 |
| 20260906001753 | 28 | 148 | 0.0 | 1.6 | 0.00 | 0.00 | 0.00 | 73 | 1014.5 |
| 20260906001744 | 28 | 148 | 0.0 | 1.6 | 0.00 | 0.00 | 0.00 | 73 | 1014.4 |
| 20260906001526 | 28 | 148 | 0.0 | 1.6 | 0.00 | 0.00 | 0.00 | 72 | 1014.5 |
| 20260906001424 | 28 | 148 | 0.0 | 1.6 | 0.00 | 0.00 | 0.00 | 72 | 1014.4 |
| 20260906001322 | 28 | 148 | 0.0 | 1.6 | 0.00 | 0.00 | 0.00 | 72 | 1014.3 |
| 20260906001221 | 28 | 148 | 0.0 | 1.6 | 0.00 | 0.00 | 0.00 | 72 | 1014.3 |
| 20260906001121 | 28 | 148 | 0.0 | 1.6 | 0.00 | 0.00 | 0.00 | 72 | 1014.3 |
| 20260906001018 | 28 | 148 | 0.0 | 1.6 | 0.00 | 0.00 | 0.00 | 72 | 1014.2 |
| 20260906000917 | 28 | 148 | 0.0 | 1.6 | 0.00 | 0.00 | 0.00 | 72 | 1014.2 |
| 20260906000815 | 28 | 148 | 0.0 | 1.6 | 0.00 | 0.00 | 0.00 | 72 | 1014.2 |
| 20260906000712 | 28 | 148 | 0.0 | 1.6 | 0.00 | 0.00 | 0.00 | 72 | 1014.2 |
| 20260906000609 | 28 | 148 | 0.0 | 1.6 | 0.00 | 0.00 | 0.00 | 72 | 1014.1 |
| 20260906000534 | 28 | 148 | 0.0 | 1.6 | 0.00 | 0.00 | 0.00 | 72 | 1014.2 |
| 20260906000523 | 28 | 148 | 0.0 | 1.6 | 0.00 | 0.00 | 0.00 | 71 | 1014.2 |
| 20260906000333 | 28 | 148 | 0.0 | 1.6 | 0.00 | 0.00 | 0.00 | 72 | 1014.2 |
| 20260906000320 | 28 | 148 | 0.0 | 1.6 | 0.00 | 0.00 | 0.00 | 71 | 1014.2 |
| 20260906000104 | 28 | 148 | 0.0 | 1.6 | 0.00 | 0.00 | 0.00 | 72 | 1014.3 |
| 20260906000028 | 28 | 148 | 0.0 | 1.6 | 0.00 | 0.00 | 0.00 | 71 | 1014.4 |
| 20260906000017 | 28 | 148 | 0.0 | 1.6 | 0.00 | 0.00 | 0.00 | 71 | 1014.3 |
| 20260905235801 | 28 | 148 | 0.0 | 3.2 | 0.00 | 0.00 | 0.00 | 71 | 1014.3 |
| 20260905235659 | 28 | 148 | 0.0 | 3.2 | 0.00 | 0.00 | 0.00 | 71 | 1014.3 |
| 20260905235622 | 28 | 148 | 0.0 | 3.2 | 0.00 | 0.00 | 0.00 | 71 | 1014.3 |
| 20260905235612 | 28 | 148 | 0.0 | 3.2 | 0.00 | 0.00 | 0.00 | 71 | 1014.3 |
| 20260905235419 | 28 | 148 | 0.0 | 3.2 | 0.00 | 0.00 | 0.00 | 71 | 1014.3 |
| 20260905235408 | 28 | 148 | 0.0 | 3.2 | 0.00 | 0.00 | 0.00 | 71 | 1014.3 |
| 20260905235147 | 28 | 148 | 0.0 | 3.2 | 0.00 | 0.00 | 0.00 | 71 | 1014.3 |
| 20260905235047 | 28 | 148 | 0.0 | 3.2 | 0.00 | 0.00 | 0.00 | 71 | 1014.3 |
| 20260905234947 | 28 | 148 | 0.0 | 3.2 | 0.00 | 0.00 | 0.00 | 71 | 1014.3 |
| 20260905234844 | 28 | 148 | 0.0 | 3.2 | 0.00 | 0.00 | 0.00 | 71 | 1014.2 |
| 20260905234744 | 28 | 148 | 0.0 | 3.2 | 0.00 | 0.00 | 0.00 | 71 | 1014.3 |
| 20260905234641 | 28 | 148 | 0.0 | 3.2 | 0.00 | 0.00 | 0.00 | 71 | 1014.2 |
| 20260905234541 | 28 | 148 | 0.0 | 12.9 | 0.00 | 0.00 | 0.00 | 70 | 1014.2 |
| 20260905234441 | 28 | 148 | 0.0 | 12.9 | 0.00 | 0.00 | 0.00 | 71 | 1014.2 |
| 20260905234339 | 28 | 148 | 1.6 | 12.9 | 0.00 | 0.00 | 0.00 | 71 | 1014.2 |
| 20260905234237 | 28 | 148 | 1.6 | 12.9 | 0.00 | 0.00 | 0.00 | 71 | 1014.1 |
| 20260905234223 | 28 | 148 | 1.6 | 12.9 | 0.00 | 0.00 | 0.00 | 71 | 1014.1 |
| 20260905234218 | 28 | 148 | 1.6 | 12.9 | 0.00 | 0.00 | 0.00 | 70 | 1014.2 |
| 20260905234204 | 28 | 148 | 1.6 | 12.9 | 0.00 | 0.00 | 0.00 | 71 | 1014.2 |
| 20260905233834 | 28 | 148 | 1.6 | 12.9 | 0.00 | 0.00 | 0.00 | 71 | 1014.2 |
| 20260905233732 | 28 | 148 | 1.6 | 12.9 | 0.00 | 0.00 | 0.00 | 71 | 1014.2 |
| 20260905233653 | 28 | 148 | 1.6 | 12.9 | 0.00 | 0.00 | 0.00 | 70 | 1014.1 |
| 20260905233640 | 28 | 148 | 1.6 | 12.9 | 0.00 | 0.00 | 0.00 | 70 | 1014.2 |
| 20260905233452 | 28 | 148 | 1.6 | 12.9 | 0.00 | 0.00 | 0.00 | 70 | 1014.2 |
| 20260905233441 | 28 | 148 | 1.6 | 12.9 | 0.00 | 0.00 | 0.00 | 70 | 1014.2 |
| 20260905233222 | 28 | 148 | 3.2 | 12.9 | 0.00 | 0.00 | 0.00 | 70 | 1014.2 |
| 20260905233122 | 28 | 148 | 1.6 | 12.9 | 0.00 | 0.00 | 0.00 | 70 | 1014.2 |
| 20260905233020 | 28 | 148 | 1.6 | 12.9 | 0.00 | 0.00 | 0.00 | 70 | 1014.2 |
| 20260905232948 | 28 | 127 | 1.6 | 12.9 | 0.00 | 0.00 | 0.00 | 70 | 1014.2 |
| 20260905232936 | 28 | 149 | 1.6 | 12.9 | 0.00 | 0.00 | 0.00 | 70 | 1014.2 |
| 20260905232719 | 28 | 127 | 1.6 | 12.9 | 0.00 | 0.00 | 0.00 | 70 | 1014.3 |
| 20260905232620 | 28 | 127 | 1.6 | 12.9 | 0.00 | 0.00 | 0.00 | 70 | 1014.2 |
| 20260905232517 | 28 | 110 | 1.6 | 4.8 | 0.00 | 0.00 | 0.00 | 70 | 1014.3 |
| 20260905232415 | 28 | 110 | 0.0 | 4.8 | 0.00 | 0.00 | 0.00 | 70 | 1014.2 |
| 20260905232316 | 28 | 109 | 0.0 | 4.8 | 0.00 | 0.00 | 0.00 | 70 | 1014.3 |
| 20260905232216 | 28 | 109 | 0.0 | 1.6 | 0.00 | 0.00 | 0.00 | 70 | 1014.2 |
| 20260905232207 | 28 | 109 | 0.0 | 1.6 | 0.00 | 0.00 | 0.00 | 70 | 1014.3 |
| 20260905232203 | 28 | 109 | 1.6 | 3.2 | 0.00 | 0.00 | 0.00 | 70 | 1014.2 |
| 20260905232146 | 28 | 109 | 0.0 | 1.6 | 0.00 | 0.00 | 0.00 | 70 | 1014.2 |
| 20260905231835 | 28 | 109 | 1.6 | 3.2 | 0.00 | 0.00 | 0.00 | 69 | 1014.2 |
| 20260905231831 | 28 | 109 | 1.6 | 3.2 | 0.00 | 0.00 | 0.00 | 69 | 1014.2 |
| 20260905231819 | 28 | 109 | 1.6 | 3.2 | 0.00 | 0.00 | 0.00 | 70 | 1014.2 |
| 20260905231802 | 28 | 109 | 1.6 | 3.2 | 0.00 | 0.00 | 0.00 | 70 | 1014.2 |
| 20260905231639 | 28 | 109 | 1.6 | 3.2 | 0.00 | 0.00 | 0.00 | 70 | 1014.2 |
| 20260905231307 | 28 | 109 | 0.0 | 3.2 | 0.00 | 0.00 | 0.00 | 69 | 1014.1 |
| 20260905231208 | 28 | 109 | 0.0 | 3.2 | 0.00 | 0.00 | 0.00 | 70 | 1014.1 |
| 20260905231105 | 28 | 109 | 0.0 | 3.2 | 0.00 | 0.00 | 0.00 | 70 | 1014.1 |
| 20260905231002 | 28 | 109 | 0.0 | 3.2 | 0.00 | 0.00 | 0.00 | 70 | 1014.0 |
| 20260905230903 | 28 | 109 | 0.0 | 0.0 | 0.00 | 0.00 | 0.00 | 70 | 1014.1 |
| 20260905230802 | 28 | 109 | 0.0 | 1.6 | 0.00 | 0.00 | 0.00 | 70 | 1014.1 |
| 20260905230725 | 28 | 109 | 0.0 | 1.6 | 0.00 | 0.00 | 0.00 | 70 | 1014.1 |
| 20260905230715 | 28 | 109 | 0.0 | 1.6 | 0.00 | 0.00 | 0.00 | 70 | 1014.1 |
| 20260905230457 | 28 | 109 | 0.0 | 1.6 | 0.00 | 0.00 | 0.00 | 70 | 1014.1 |
| 20260905230358 | 28 | 109 | 0.0 | 1.6 | 0.00 | 0.00 | 0.00 | 70 | 1014.1 |
| 20260905230255 | 28 | 109 | 0.0 | 1.6 | 0.00 | 0.00 | 0.00 | 70 | 1014.2 |
| 20260905230156 | 28 | 109 | 0.0 | 1.6 | 0.00 | 0.00 | 0.00 | 69 | 1014.1 |
| 20260905230056 | 28 | 109 | 0.0 | 1.6 | 0.00 | 0.00 | 0.00 | 70 | 1014.0 |
| 20260905225955 | 28 | 109 | 0.0 | 1.6 | 0.00 | 0.00 | 0.00 | 70 | 1014.1 |
| 20260905225849 | 28 | 109 | 0.0 | 1.6 | 0.00 | 0.00 | 0.00 | 70 | 1014.1 |
| 20260905225815 | 28 | 109 | 0.0 | 1.6 | 0.00 | 0.00 | 0.00 | 70 | 1014.2 |
| 20260905225804 | 28 | 109 | 0.0 | 1.6 | 0.00 | 0.00 | 0.00 | 70 | 1014.2 |
| 20260905225550 | 28 | 109 | 0.0 | 1.6 | 0.00 | 0.00 | 0.00 | 70 | 1014.1 |
| 20260905225450 | 28 | 109 | 0.0 | 1.6 | 0.00 | 0.00 | 0.00 | 70 | 1014.1 |
| 20260905225349 | 28 | 109 | 0.0 | 1.6 | 0.00 | 0.00 | 0.00 | 70 | 1014.1 |
| 20260905225246 | 28 | 109 | 0.0 | 1.6 | 0.00 | 0.00 | 0.00 | 70 | 1014.0 |
| 20260905225146 | 28 | 109 | 0.0 | 1.6 | 0.00 | 0.00 | 0.00 | 70 | 1014.1 |
| 20260905225045 | 28 | 109 | 0.0 | 1.6 | 0.00 | 0.00 | 0.00 | 70 | 1014.1 |
| 20260905224943 | 28 | 109 | 0.0 | 1.6 | 0.00 | 0.00 | 0.00 | 70 | 1014.1 |
| 20260905224904 | 28 | 109 | 0.0 | 1.6 | 0.00 | 0.00 | 0.00 | 69 | 1014.1 |
| 20260905224852 | 28 | 109 | 0.0 | 1.6 | 0.00 | 0.00 | 0.00 | 69 | 1014.0 |
| 20260905224636 | 28 | 109 | 0.0 | 1.6 | 0.00 | 0.00 | 0.00 | 69 | 1014.0 |
| 20260905224536 | 28 | 109 | 0.0 | 1.6 | 0.00 | 0.00 | 0.00 | 69 | 1014.1 |
| 20260905224434 | 28 | 109 | 0.0 | 1.6 | 0.00 | 0.00 | 0.00 | 69 | 1013.9 |
| 20260905224334 | 28 | 109 | 0.0 | 6.4 | 0.00 | 0.00 | 0.00 | 70 | 1014.0 |
| 20260905224230 | 28 | 109 | 0.0 | 6.4 | 0.00 | 0.00 | 0.00 | 70 | 1013.9 |
| 20260905224132 | 28 | 109 | 0.0 | 6.4 | 0.00 | 0.00 | 0.00 | 70 | 1014.0 |
| 20260905224030 | 28 | 109 | 0.0 | 6.4 | 0.00 | 0.00 | 0.00 | 70 | 1013.9 |
| 20260905224016 | 28 | 109 | 0.0 | 6.4 | 0.00 | 0.00 | 0.00 | 70 | 1014.0 |
| 20260905224011 | 28 | 109 | 0.0 | 6.4 | 0.00 | 0.00 | 0.00 | 70 | 1014.0 |
| 20260905223955 | 28 | 109 | 0.0 | 6.4 | 0.00 | 0.00 | 0.00 | 70 | 1013.9 |
| 20260905223626 | 28 | 109 | 0.0 | 6.4 | 0.00 | 0.00 | 0.00 | 70 | 1014.1 |
| 20260905223523 | 28 | 109 | 0.0 | 6.4 | 0.00 | 0.00 | 0.00 | 70 | 1014.1 |
| 20260905223422 | 28 | 109 | 0.0 | 6.4 | 0.00 | 0.00 | 0.00 | 70 | 1014.1 |
| 20260905223317 | 28 | 109 | 1.6 | 8.0 | 0.00 | 0.00 | 0.00 | 69 | 1014.1 |
| 20260905223215 | 28 | 109 | 1.6 | 8.0 | 0.00 | 0.00 | 0.00 | 69 | 1014.0 |
| 20260905223138 | 28 | 109 | 1.6 | 9.7 | 0.00 | 0.00 | 0.00 | 69 | 1014.0 |
| 20260905223128 | 28 | 109 | 1.6 | 8.0 | 0.00 | 0.00 | 0.00 | 69 | 1014.1 |
| 20260905222912 | 28 | 109 | 1.6 | 9.7 | 0.00 | 0.00 | 0.00 | 69 | 1014.1 |
| 20260905222810 | 28 | 109 | 1.6 | 9.7 | 0.00 | 0.00 | 0.00 | 69 | 1014.1 |
| 20260905222709 | 28 | 109 | 1.6 | 9.7 | 0.00 | 0.00 | 0.00 | 69 | 1014.1 |
| 20260905222609 | 28 | 109 | 1.6 | 9.7 | 0.00 | 0.00 | 0.00 | 69 | 1014.2 |
| 20260905222508 | 28 | 109 | 3.2 | 9.7 | 0.00 | 0.00 | 0.00 | 69 | 1014.1 |
| 20260905222406 | 28 | 108 | 1.6 | 9.7 | 0.00 | 0.00 | 0.00 | 70 | 1014.2 |
| 20260905222314 | 28 | 140 | 3.2 | 14.5 | 0.00 | 0.00 | 0.00 | 69 | 1014.6 |
| 20260905222306 | 28 | 144 | 3.2 | 9.7 | 0.00 | 0.00 | 0.00 | 69 | 1014.3 |
| 20260905222300 | 28 | 144 | 3.2 | 9.7 | 0.00 | 0.00 | 0.00 | 69 | 1014.4 |
| 20260905222256 | 28 | 133 | 3.2 | 8.0 | 0.00 | 0.00 | 0.00 | 69 | 1014.4 |
| 20260905222251 | 28 | 140 | 3.2 | 14.5 | 0.00 | 0.00 | 0.00 | 70 | 1014.6 |
| 20260905222234 | 28 | 144 | 3.2 | 9.7 | 0.00 | 0.00 | 0.00 | 69 | 1014.4 |
| 20260905221945 | 28 | 133 | 3.2 | 8.0 | 0.00 | 0.00 | 0.00 | 69 | 1014.4 |
| 20260905221822 | 28 | 133 | 3.2 | 14.5 | 0.00 | 0.00 | 0.00 | 69 | 1014.5 |
| 20260905221516 | 28 | 128 | 3.2 | 14.5 | 0.00 | 0.00 | 0.00 | 69 | 1014.7 |
| 20260905221504 | 28 | 128 | 3.2 | 14.5 | 0.00 | 0.00 | 0.00 | 69 | 1014.6 |
| 20260905221244 | 28 | 128 | 3.2 | 14.5 | 0.00 | 0.00 | 0.00 | 69 | 1014.7 |
| 20260905221146 | 28 | 128 | 3.2 | 14.5 | 0.00 | 0.00 | 0.00 | 69 | 1014.7 |
| 20260905221045 | 28 | 114 | 3.2 | 14.5 | 0.00 | 0.00 | 0.00 | 69 | 1014.7 |
| 20260905220945 | 28 | 171 | 4.8 | 14.5 | 0.00 | 0.00 | 0.00 | 69 | 1014.7 |
| 20260905220844 | 28 | 171 | 4.8 | 14.5 | 0.00 | 0.00 | 0.00 | 69 | 1014.8 |
| 20260905220740 | 28 | 173 | 4.8 | 14.5 | 0.00 | 0.00 | 0.00 | 69 | 1014.7 |
| 20260905220704 | 28 | 146 | 4.8 | 14.5 | 0.00 | 0.00 | 0.00 | 69 | 1014.7 |
| 20260905220653 | 28 | 117 | 4.8 | 14.5 | 0.00 | 0.00 | 0.00 | 69 | 1014.8 |
| 20260905220438 | 28 | 134 | 4.8 | 14.5 | 0.00 | 0.00 | 0.00 | 68 | 1014.8 |
| 20260905220337 | 28 | 132 | 4.8 | 14.5 | 0.00 | 0.00 | 0.00 | 68 | 1014.8 |
| 20260905220234 | 28 | 143 | 4.8 | 14.5 | 0.00 | 0.00 | 0.00 | 68 | 1014.8 |
| 20260905220136 | 28 | 142 | 4.8 | 14.5 | 0.00 | 0.00 | 0.00 | 68 | 1014.8 |
| 20260905220034 | 28 | 142 | 4.8 | 14.5 | 0.00 | 0.00 | 0.00 | 67 | 1014.8 |
| 20260905215934 | 29 | 94 | 4.8 | 14.5 | 0.00 | 0.00 | 0.00 | 67 | 1014.8 |
| 20260905215833 | 29 | 178 | 3.2 | 14.5 | 0.00 | 0.00 | 0.00 | 67 | 1014.9 |
| 20260905215732 | 29 | 146 | 3.2 | 14.5 | 0.00 | 0.00 | 0.00 | 67 | 1014.9 |
| 20260905215633 | 29 | 144 | 3.2 | 14.5 | 0.00 | 0.00 | 0.00 | 66 | 1014.9 |
| 20260905215532 | 29 | 113 | 3.2 | 14.5 | 0.00 | 0.00 | 0.00 | 66 | 1014.9 |
| 20260905215431 | 29 | 115 | 3.2 | 14.5 | 0.00 | 0.00 | 0.00 | 66 | 1014.9 |
| 20260905215331 | 29 | 115 | 3.2 | 14.5 | 0.00 | 0.00 | 0.00 | 66 | 1014.9 |
| 20260905215232 | 29 | 115 | 3.2 | 14.5 | 0.00 | 0.00 | 0.00 | 66 | 1015.0 |
| 20260905215130 | 29 | 132 | 3.2 | 14.5 | 0.00 | 0.00 | 0.00 | 66 | 1014.8 |
| 20260905215032 | 29 | 84 | 3.2 | 14.5 | 0.00 | 0.00 | 0.00 | 66 | 1014.9 |
| 20260905214930 | 29 | 129 | 4.8 | 14.5 | 0.00 | 0.00 | 0.00 | 66 | 1015.0 |
| 20260905214829 | 29 | 141 | 4.8 | 14.5 | 0.00 | 0.00 | 0.00 | 65 | 1015.0 |
| 20260905214730 | 30 | 142 | 4.8 | 14.5 | 0.00 | 0.00 | 0.00 | 65 | 1015.0 |
| 20260905214652 | 30 | 98 | 4.8 | 14.5 | 0.00 | 0.00 | 0.00 | 65 | 1015.1 |
| 20260905214640 | 30 | 98 | 4.8 | 14.5 | 0.00 | 0.00 | 0.00 | 65 | 1015.1 |
| 20260905214425 | 30 | 98 | 4.8 | 14.5 | 0.00 | 0.00 | 0.00 | 65 | 1015.1 |
| 20260905214326 | 30 | 98 | 4.8 | 14.5 | 0.00 | 0.00 | 0.00 | 64 | 1015.1 |
| 20260905214225 | 30 | 99 | 6.4 | 14.5 | 0.00 | 0.00 | 0.00 | 64 | 1015.0 |
| 20260905214125 | 30 | 105 | 4.8 | 14.5 | 0.00 | 0.00 | 0.00 | 64 | 1014.9 |
| 20260905214025 | 30 | 94 | 4.8 | 14.5 | 0.00 | 0.00 | 0.00 | 64 | 1014.9 |
| 20260905213924 | 30 | 138 | 4.8 | 14.5 | 0.00 | 0.00 | 0.00 | 64 | 1014.9 |
| 20260905213850 | 30 | 88 | 4.8 | 14.5 | 0.00 | 0.00 | 0.00 | 64 | 1014.9 |
| 20260905213838 | 30 | 109 | 4.8 | 14.5 | 0.00 | 0.00 | 0.00 | 63 | 1014.9 |
| 20260905213623 | 31 | 92 | 4.8 | 14.5 | 0.00 | 0.00 | 0.00 | 64 | 1014.7 |
| 20260905213523 | 31 | 92 | 4.8 | 14.5 | 0.00 | 0.00 | 0.00 | 64 | 1014.6 |
| 20260905213423 | 31 | 92 | 4.8 | 14.5 | 0.00 | 0.00 | 0.00 | 64 | 1014.6 |
| 20260905213323 | 31 | 92 | 4.8 | 14.5 | 0.00 | 0.00 | 0.00 | 64 | 1014.7 |
| 20260905213223 | 31 | 92 | 4.8 | 14.5 | 0.00 | 0.00 | 0.00 | 64 | 1014.6 |
| 20260905213124 | 31 | 91 | 4.8 | 14.5 | 0.00 | 0.00 | 0.00 | 65 | 1014.6 |
| 20260905213022 | 31 | 91 | 4.8 | 14.5 | 0.00 | 0.00 | 0.00 | 64 | 1014.6 |
| 20260905212922 | 31 | 91 | 4.8 | 14.5 | 0.00 | 0.00 | 0.00 | 64 | 1014.7 |
| 20260905212824 | 31 | 92 | 6.4 | 14.5 | 0.00 | 0.00 | 0.00 | 63 | 1014.7 |
| 20260905212722 | 31 | 96 | 6.4 | 14.5 | 0.00 | 0.00 | 0.00 | 63 | 1014.6 |
| 20260905212623 | 31 | 104 | 6.4 | 14.5 | 0.00 | 0.00 | 0.00 | 63 | 1014.6 |
| 20260905212524 | 32 | 94 | 4.8 | 14.5 | 0.00 | 0.00 | 0.00 | 62 | 1014.7 |
| 20260905212423 | 32 | 93 | 4.8 | 14.5 | 0.00 | 0.00 | 0.00 | 62 | 1014.6 |
| 20260905212350 | 32 | 95 | 4.8 | 14.5 | 0.00 | 0.00 | 0.00 | 61 | 1014.6 |
| 20260905212338 | 32 | 94 | 4.8 | 14.5 | 0.00 | 0.00 | 0.00 | 61 | 1014.7 |
| 20260905212122 | 32 | 98 | 4.8 | 14.5 | 0.00 | 0.00 | 0.00 | 60 | 1014.6 |
| 20260905212115 | 32 | 109 | 3.2 | 14.5 | 0.00 | 0.00 | 0.00 | 59 | 1014.7 |
| 20260905212110 | 32 | 87 | 3.2 | 14.5 | 0.00 | 0.00 | 0.00 | 60 | 1014.6 |
| 20260905212054 | 32 | 104 | 4.8 | 14.5 | 0.00 | 0.00 | 0.00 | 60 | 1014.7 |
| 20260905211723 | 33 | 88 | 1.6 | 6.4 | 0.00 | 0.00 | 0.00 | 60 | 1014.6 |
| 20260905211623 | 33 | 86 | 1.6 | 6.4 | 0.00 | 0.00 | 0.00 | 60 | 1014.6 |
| 20260905211523 | 33 | 85 | 1.6 | 6.4 | 0.00 | 0.00 | 0.00 | 60 | 1014.6 |
| 20260905211419 | 33 | 85 | 1.6 | 6.4 | 0.00 | 0.00 | 0.00 | 60 | 1014.5 |
| 20260905211346 | 33 | 46 | 1.6 | 4.8 | 0.00 | 0.00 | 0.00 | 59 | 1014.5 |
| 20260905211334 | 33 | 65 | 1.6 | 4.8 | 0.00 | 0.00 | 0.00 | 59 | 1014.5 |
| 20260905211119 | 33 | 46 | 1.6 | 4.8 | 0.00 | 0.00 | 0.00 | 58 | 1014.4 |
| 20260905211019 | 33 | 46 | 1.6 | 4.8 | 0.00 | 0.00 | 0.00 | 59 | 1014.5 |
| 20260905210918 | 33 | 46 | 1.6 | 4.8 | 0.00 | 0.00 | 0.00 | 58 | 1014.4 |
| 20260905210820 | 33 | 46 | 1.6 | 16.1 | 0.00 | 0.00 | 0.00 | 58 | 1014.4 |
| 20260905210718 | 33 | 46 | 1.6 | 16.1 | 0.00 | 0.00 | 0.00 | 58 | 1014.5 |
| 20260905210618 | 33 | 46 | 1.6 | 16.1 | 0.00 | 0.00 | 0.00 | 57 | 1014.4 |
| 20260905210543 | 33 | 46 | 1.6 | 16.1 | 0.00 | 0.00 | 0.00 | 57 | 1014.4 |
| 20260905210532 | 33 | 46 | 1.6 | 16.1 | 0.00 | 0.00 | 0.00 | 57 | 1014.4 |
| 20260905210318 | 33 | 46 | 3.2 | 16.1 | 0.00 | 0.00 | 0.00 | 57 | 1014.4 |
| 20260905210218 | 33 | 42 | 3.2 | 16.1 | 0.00 | 0.00 | 0.00 | 57 | 1014.4 |
| 20260905210143 | 33 | 38 | 3.2 | 16.1 | 0.00 | 0.00 | 0.00 | 56 | 1014.3 |
| 20260905210134 | 33 | 38 | 3.2 | 16.1 | 0.00 | 0.00 | 0.00 | 56 | 1014.3 |
| 20260905205920 | 33 | 38 | 3.2 | 16.1 | 0.00 | 0.00 | 0.00 | 56 | 1014.4 |
| 20260905205819 | 33 | 40 | 3.2 | 16.1 | 0.00 | 0.00 | 0.00 | 56 | 1014.4 |
| 20260905205718 | 34 | 40 | 3.2 | 16.1 | 0.00 | 0.00 | 0.00 | 55 | 1014.3 |
| 20260905205618 | 34 | 38 | 3.2 | 16.1 | 0.00 | 0.00 | 0.00 | 55 | 1014.4 |
| 20260905205520 | 34 | 41 | 3.2 | 16.1 | 0.00 | 0.00 | 0.00 | 55 | 1014.3 |
| 20260905205418 | 35 | 40 | 3.2 | 16.1 | 0.00 | 0.00 | 0.00 | 54 | 1014.3 |
| 20260905205320 | 35 | 40 | 3.2 | 16.1 | 0.00 | 0.00 | 0.00 | 54 | 1014.2 |
| 20260905205218 | 35 | 40 | 3.2 | 16.1 | 0.00 | 0.00 | 0.00 | 53 | 1014.1 |
| 20260905205119 | 35 | 40 | 4.8 | 16.1 | 0.00 | 0.00 | 0.00 | 53 | 1014.1 |
| 20260905205045 | 35 | 49 | 3.2 | 14.5 | 0.00 | 0.00 | 0.00 | 52 | 1014.1 |
| 20260905205035 | 35 | 40 | 4.8 | 16.1 | 0.00 | 0.00 | 0.00 | 52 | 1014.1 |
| 20260905204847 | 36 | 50 | 3.2 | 12.9 | 0.00 | 0.00 | 0.00 | 51 | 1014.1 |
| 20260905204834 | 36 | 51 | 3.2 | 12.9 | 0.00 | 0.00 | 0.00 | 52 | 1014.1 |
| 20260905204619 | 36 | 50 | 3.2 | 12.9 | 0.00 | 0.00 | 0.00 | 51 | 1014.1 |
| 20260905204519 | 36 | 34 | 3.2 | 12.9 | 0.00 | 0.00 | 0.00 | 51 | 1014.1 |
| 20260905204419 | 36 | 30 | 3.2 | 12.9 | 0.00 | 0.00 | 0.00 | 51 | 1014.1 |
| 20260905204318 | 36 | 20 | 3.2 | 12.9 | 0.00 | 0.00 | 0.00 | 51 | 1014.1 |
| 20260905204219 | 36 | 20 | 3.2 | 12.9 | 0.00 | 0.00 | 0.00 | 50 | 1014.1 |
| 20260905204115 | 36 | 5 | 3.2 | 9.7 | 0.00 | 0.00 | 0.00 | 50 | 1014.1 |
| 20260905204014 | 36 | 355 | 3.2 | 9.7 | 0.00 | 0.00 | 0.00 | 50 | 1014.1 |
| 20260905203914 | 36 | 344 | 3.2 | 9.7 | 0.00 | 0.00 | 0.00 | 49 | 1014.1 |
| 20260905203814 | 37 | 286 | 3.2 | 9.7 | 0.00 | 0.00 | 0.00 | 49 | 1014.1 |
| 20260905203715 | 37 | 286 | 3.2 | 9.7 | 0.00 | 0.00 | 0.00 | 50 | 1014.1 |
| 20260905203616 | 37 | 355 | 1.6 | 9.7 | 0.00 | 0.00 | 0.00 | 50 | 1014.0 |
| 20260905203514 | 37 | 17 | 1.6 | 9.7 | 0.00 | 0.00 | 0.00 | 49 | 1014.0 |
| 20260905203414 | 37 | 26 | 1.6 | 9.7 | 0.00 | 0.00 | 0.00 | 50 | 1014.0 |
| 20260905203315 | 37 | 349 | 1.6 | 9.7 | 0.00 | 0.00 | 0.00 | 50 | 1014.0 |
| 20260905203216 | 36 | 349 | 1.6 | 9.7 | 0.00 | 0.00 | 0.00 | 51 | 1014.0 |
| 20260905203143 | 36 | 325 | 1.6 | 9.7 | 0.00 | 0.00 | 0.00 | 50 | 1014.0 |
| 20260905203131 | 36 | 350 | 1.6 | 9.7 | 0.00 | 0.00 | 0.00 | 51 | 1014.0 |
| 20260905202915 | 36 | 324 | 1.6 | 9.7 | 0.00 | 0.00 | 0.00 | 50 | 1014.0 |
| 20260905202815 | 36 | 327 | 1.6 | 8.0 | 0.00 | 0.00 | 0.00 | 50 | 1014.0 |
| 20260905202716 | 36 | 5 | 1.6 | 8.0 | 0.00 | 0.00 | 0.00 | 49 | 1014.0 |
| 20260905202614 | 36 | 5 | 1.6 | 8.0 | 0.00 | 0.00 | 0.00 | 50 | 1014.1 |
| 20260905202514 | 36 | 5 | 1.6 | 8.0 | 0.00 | 0.00 | 0.00 | 49 | 1014.2 |
| 20260905202416 | 36 | 5 | 1.6 | 8.0 | 0.00 | 0.00 | 0.00 | 49 | 1014.1 |
| 20260905202315 | 36 | 24 | 1.6 | 8.0 | 0.00 | 0.00 | 0.00 | 49 | 1014.2 |
| 20260905202215 | 36 | 318 | 3.2 | 8.0 | 0.00 | 0.00 | 0.00 | 50 | 1014.2 |
| 20260905202114 | 36 | 318 | 3.2 | 8.0 | 0.00 | 0.00 | 0.00 | 49 | 1014.2 |
| 20260905202039 | 36 | 317 | 3.2 | 8.0 | 0.00 | 0.00 | 0.00 | 49 | 1014.2 |
| 20260905202028 | 36 | 318 | 3.2 | 8.0 | 0.00 | 0.00 | 0.00 | 49 | 1014.1 |
| 20260905201814 | 36 | 19 | 3.2 | 8.0 | 0.00 | 0.00 | 0.00 | 50 | 1014.2 |
| 20260905201713 | 36 | 302 | 3.2 | 8.0 | 0.00 | 0.00 | 0.00 | 49 | 1014.2 |
| 20260905201609 | 36 | 302 | 3.2 | 8.0 | 0.00 | 0.00 | 0.00 | 48 | 1014.2 |
| 20260905201508 | 36 | 300 | 3.2 | 8.0 | 0.00 | 0.00 | 0.00 | 48 | 1014.2 |
| 20260905201408 | 36 | 299 | 3.2 | 8.0 | 0.00 | 0.00 | 0.00 | 49 | 1014.3 |
| 20260905201308 | 36 | 340 | 1.6 | 8.0 | 0.00 | 0.00 | 0.00 | 51 | 1014.3 |
| 20260905201209 | 36 | 344 | 1.6 | 8.0 | 0.00 | 0.00 | 0.00 | 49 | 1014.3 |
| 20260905201109 | 36 | 329 | 1.6 | 8.0 | 0.00 | 0.00 | 0.00 | 48 | 1014.3 |
| 20260905201005 | 36 | 312 | 1.6 | 6.4 | 0.00 | 0.00 | 0.00 | 49 | 1014.3 |
| 20260905200902 | 36 | 312 | 1.6 | 6.4 | 0.00 | 0.00 | 0.00 | 49 | 1014.4 |
| 20260905200804 | 36 | 312 | 1.6 | 6.4 | 0.00 | 0.00 | 0.00 | 49 | 1014.5 |
| 20260905200704 | 36 | 315 | 1.6 | 6.4 | 0.00 | 0.00 | 0.00 | 49 | 1014.4 |
| 20260905200601 | 36 | 320 | 1.6 | 6.4 | 0.00 | 0.00 | 0.00 | 50 | 1014.4 |
| 20260905200458 | 36 | 321 | 3.2 | 6.4 | 0.00 | 0.00 | 0.00 | 50 | 1014.4 |
| 20260905200425 | 36 | 338 | 3.2 | 8.0 | 0.00 | 0.00 | 0.00 | 49 | 1014.6 |
| 20260905200413 | 36 | 337 | 3.2 | 6.4 | 0.00 | 0.00 | 0.00 | 50 | 1014.4 |
| 20260905200157 | 36 | 337 | 3.2 | 8.0 | 0.00 | 0.00 | 0.00 | 50 | 1014.5 |
| 20260905200055 | 36 | 311 | 3.2 | 8.0 | 0.00 | 0.00 | 0.00 | 50 | 1014.6 |
| 20260905195949 | 36 | 13 | 3.2 | 8.0 | 0.00 | 0.00 | 0.00 | 50 | 1014.5 |
| 20260905195917 | 37 | 296 | 3.2 | 8.0 | 0.00 | 0.00 | 0.00 | 50 | 1014.6 |
| 20260905195906 | 37 | 342 | 3.2 | 8.0 | 0.00 | 0.00 | 0.00 | 49 | 1014.6 |
| 20260905195734 | 37 | 327 | 3.2 | 8.0 | 0.00 | 0.00 | 0.00 | 49 | 1014.5 |
| 20260905195729 | 37 | 347 | 3.2 | 8.0 | 0.00 | 0.00 | 0.00 | 49 | 1014.6 |
| 20260905195715 | 37 | 355 | 3.2 | 8.0 | 0.00 | 0.00 | 0.00 | 49 | 1014.6 |
| 20260905195339 | 37 | 340 | 3.2 | 8.0 | 0.00 | 0.00 | 0.00 | 48 | 1014.5 |
| 20260905195240 | 37 | 340 | 3.2 | 8.0 | 0.00 | 0.00 | 0.00 | 48 | 1014.6 |
| 20260905195209 | 37 | 17 | 3.2 | 8.0 | 0.00 | 0.00 | 0.00 | 48 | 1014.6 |
| 20260905195157 | 37 | 17 | 3.2 | 8.0 | 0.00 | 0.00 | 0.00 | 48 | 1014.6 |
| 20260905194934 | 37 | 17 | 3.2 | 8.0 | 0.00 | 0.00 | 0.00 | 48 | 1014.6 |
| 20260905194834 | 37 | 18 | 3.2 | 8.0 | 0.00 | 0.00 | 0.00 | 47 | 1014.8 |
| 20260905194734 | 37 | 355 | 3.2 | 16.1 | 0.00 | 0.00 | 0.00 | 48 | 1014.8 |
| 20260905194633 | 37 | 277 | 3.2 | 16.1 | 0.00 | 0.00 | 0.00 | 48 | 1014.8 |
| 20260905194555 | 37 | 275 | 3.2 | 16.1 | 0.00 | 0.00 | 0.00 | 47 | 1014.8 |
| 20260905194545 | 37 | 265 | 3.2 | 16.1 | 0.00 | 0.00 | 0.00 | 47 | 1014.7 |
| 20260905194328 | 37 | 299 | 1.6 | 16.1 | 0.00 | 0.00 | 0.00 | 47 | 1014.7 |
| 20260905194227 | 37 | 316 | 1.6 | 16.1 | 0.00 | 0.00 | 0.00 | 47 | 1014.8 |
| 20260905194126 | 37 | 316 | 1.6 | 16.1 | 0.00 | 0.00 | 0.00 | 47 | 1014.7 |
| 20260905194023 | 37 | 316 | 1.6 | 16.1 | 0.00 | 0.00 | 0.00 | 48 | 1014.8 |
| 20260905193918 | 37 | 9 | 1.6 | 16.1 | 0.00 | 0.00 | 0.00 | 47 | 1014.7 |
| 20260905193818 | 37 | 9 | 3.2 | 16.1 | 0.00 | 0.00 | 0.00 | 48 | 1014.7 |
| 20260905193717 | 37 | 22 | 3.2 | 16.1 | 0.00 | 0.00 | 0.00 | 48 | 1014.8 |
| 20260905193616 | 37 | 170 | 3.2 | 16.1 | 0.00 | 0.00 | 0.00 | 48 | 1014.8 |
| 20260905193538 | 37 | 169 | 3.2 | 16.1 | 0.00 | 0.00 | 0.00 | 50 | 1015.0 |
| 20260905193528 | 37 | 167 | 3.2 | 16.1 | 0.00 | 0.00 | 0.00 | 47 | 1014.8 |
| 20260905193310 | 37 | 170 | 3.2 | 16.1 | 0.00 | 0.00 | 0.00 | 52 | 1014.9 |
| 20260905193210 | 37 | 172 | 3.2 | 16.1 | 0.00 | 0.00 | 0.00 | 49 | 1015.0 |
| 20260905193109 | 37 | 173 | 3.2 | 16.1 | 0.00 | 0.00 | 0.00 | 49 | 1015.0 |
| 20260905193010 | 37 | 166 | 3.2 | 16.1 | 0.00 | 0.00 | 0.00 | 49 | 1015.0 |
| 20260905192905 | 37 | 338 | 3.2 | 16.1 | 0.00 | 0.00 | 0.00 | 49 | 1015.1 |
| 20260905192829 | 37 | 320 | 3.2 | 9.7 | 0.00 | 0.00 | 0.00 | 50 | 1015.0 |
| 20260905192819 | 37 | 355 | 3.2 | 16.1 | 0.00 | 0.00 | 0.00 | 49 | 1015.1 |
| 20260905192628 | 36 | 84 | 1.6 | 9.7 | 0.00 | 0.00 | 0.00 | 49 | 1015.2 |
| 20260905192615 | 37 | 85 | 1.6 | 9.7 | 0.00 | 0.00 | 0.00 | 50 | 1015.1 |
| 20260905192354 | 36 | 302 | 1.6 | 9.7 | 0.00 | 0.00 | 0.00 | 50 | 1015.2 |
| 20260905192255 | 36 | 302 | 1.6 | 9.7 | 0.00 | 0.00 | 0.00 | 50 | 1015.2 |
| 20260905192154 | 36 | 301 | 1.6 | 9.7 | 0.00 | 0.00 | 0.00 | 49 | 1015.2 |
| 20260905192055 | 36 | 300 | 1.6 | 9.7 | 0.00 | 0.00 | 0.00 | 49 | 1015.2 |
| 20260905191954 | 36 | 265 | 1.6 | 6.4 | 0.00 | 0.00 | 0.00 | 50 | 1015.2 |
| 20260905191915 | 36 | 281 | 1.6 | 8.0 | 0.00 | 0.00 | 0.00 | 50 | 1015.4 |
| 20260905191903 | 36 | 182 | 1.6 | 8.0 | 0.00 | 0.00 | 0.00 | 50 | 1015.5 |
| 20260905191645 | 36 | 281 | 1.6 | 8.0 | 0.00 | 0.00 | 0.00 | 50 | 1015.5 |
| 20260905191543 | 36 | 281 | 1.6 | 8.0 | 0.00 | 0.00 | 0.00 | 50 | 1015.4 |
| 20260905191441 | 36 | 287 | 1.6 | 8.0 | 0.00 | 0.00 | 0.00 | 52 | 1015.4 |
| 20260905191404 | 36 | 312 | 1.6 | 8.0 | 0.00 | 0.00 | 0.00 | 50 | 1015.4 |
| 20260905191352 | 36 | 287 | 1.6 | 8.0 | 0.00 | 0.00 | 0.00 | 50 | 1015.4 |
| 20260905191135 | 36 | 326 | 1.6 | 8.0 | 0.00 | 0.00 | 0.00 | 52 | 1015.4 |
| 20260905191036 | 36 | 22 | 1.6 | 8.0 | 0.00 | 0.00 | 0.00 | 53 | 1015.4 |
| 20260905190936 | 36 | 22 | 1.6 | 8.0 | 0.00 | 0.00 | 0.00 | 52 | 1015.5 |
| 20260905190835 | 36 | 22 | 1.6 | 8.0 | 0.00 | 0.00 | 0.00 | 52 | 1015.4 |
| 20260905190801 | 36 | 22 | 1.6 | 8.0 | 0.00 | 0.00 | 0.00 | 52 | 1015.5 |
| 20260905190749 | 36 | 22 | 1.6 | 8.0 | 0.00 | 0.00 | 0.00 | 52 | 1015.5 |
| 20260905190557 | 36 | 23 | 3.2 | 8.0 | 0.00 | 0.00 | 0.00 | 51 | 1015.7 |
| 20260905190546 | 36 | 22 | 3.2 | 8.0 | 0.00 | 0.00 | 0.00 | 51 | 1015.5 |
| 20260905190328 | 36 | 0 | 3.2 | 8.0 | 0.00 | 0.00 | 0.00 | 49 | 1015.5 |
| 20260905190228 | 36 | 0 | 3.2 | 8.0 | 0.00 | 0.00 | 0.00 | 50 | 1015.5 |
| 20260905190128 | 36 | 5 | 3.2 | 8.0 | 0.00 | 0.00 | 0.00 | 51 | 1015.5 |
| 20260905190026 | 36 | 9 | 1.6 | 8.0 | 0.00 | 0.00 | 0.00 | 51 | 1015.7 |
| 20260905185923 | 36 | 296 | 1.6 | 8.0 | 0.00 | 0.00 | 0.00 | 50 | 1015.7 |
| 20260905185818 | 36 | 284 | 3.2 | 8.0 | 0.00 | 0.00 | 0.00 | 50 | 1015.7 |
| 20260905185718 | 36 | 210 | 3.2 | 8.0 | 0.00 | 0.00 | 0.00 | 50 | 1015.7 |
| 20260905185617 | 37 | 210 | 3.2 | 8.0 | 0.00 | 0.00 | 0.00 | 49 | 1015.7 |
| 20260905185516 | 37 | 199 | 3.2 | 8.0 | 0.00 | 0.00 | 0.00 | 49 | 1015.7 |
| 20260905185413 | 37 | 194 | 3.2 | 8.0 | 0.00 | 0.00 | 0.00 | 49 | 1015.8 |
| 20260905185307 | 37 | 193 | 3.2 | 8.0 | 0.00 | 0.00 | 0.00 | 49 | 1015.7 |
| 20260905185208 | 37 | 193 | 3.2 | 8.0 | 0.00 | 0.00 | 0.00 | 49 | 1015.7 |
| 20260905185108 | 37 | 310 | 3.2 | 8.0 | 0.00 | 0.00 | 0.00 | 48 | 1015.7 |
| 20260905185008 | 37 | 311 | 3.2 | 8.0 | 0.00 | 0.00 | 0.00 | 48 | 1015.5 |
| 20260905184906 | 37 | 306 | 3.2 | 8.0 | 0.00 | 0.00 | 0.00 | 49 | 1015.7 |
| 20260905184804 | 37 | 324 | 3.2 | 8.0 | 0.00 | 0.00 | 0.00 | 50 | 1015.7 |
| 20260905184704 | 37 | 320 | 3.2 | 8.0 | 0.00 | 0.00 | 0.00 | 51 | 1015.8 |
| 20260905184603 | 37 | 27 | 3.2 | 6.4 | 0.00 | 0.00 | 0.00 | 49 | 1015.7 |
| 20260905184503 | 37 | 27 | 1.6 | 6.4 | 0.00 | 0.00 | 0.00 | 50 | 1015.7 |
| 20260905184359 | 37 | 27 | 1.6 | 6.4 | 0.00 | 0.00 | 0.00 | 51 | 1015.7 |
| 20260905184258 | 37 | 27 | 3.2 | 6.4 | 0.00 | 0.00 | 0.00 | 50 | 1015.7 |
| 20260905184158 | 36 | 27 | 3.2 | 6.4 | 0.00 | 0.00 | 0.00 | 50 | 1015.7 |
| 20260905184058 | 36 | 28 | 1.6 | 6.4 | 0.00 | 0.00 | 0.00 | 53 | 1015.5 |
| 20260905183956 | 36 | 34 | 1.6 | 6.4 | 0.00 | 0.00 | 0.00 | 52 | 1015.7 |
| 20260905183854 | 36 | 34 | 1.6 | 6.4 | 0.00 | 0.00 | 0.00 | 51 | 1015.7 |
| 20260905183753 | 36 | 34 | 1.6 | 6.4 | 0.00 | 0.00 | 0.00 | 51 | 1015.7 |
| 20260905183653 | 36 | 21 | 1.6 | 6.4 | 0.00 | 0.00 | 0.00 | 51 | 1015.8 |
| 20260905183554 | 36 | 21 | 1.6 | 6.4 | 0.00 | 0.00 | 0.00 | 52 | 1015.8 |
| 20260905183454 | 36 | 22 | 1.6 | 8.0 | 0.00 | 0.00 | 0.00 | 51 | 1015.8 |
| 20260905183353 | 36 | 22 | 1.6 | 8.0 | 0.00 | 0.00 | 0.00 | 53 | 1015.8 |
| 20260905183321 | 36 | 17 | 1.6 | 8.0 | 0.00 | 0.00 | 0.00 | 52 | 1015.9 |
| 20260905183310 | 36 | 17 | 1.6 | 8.0 | 0.00 | 0.00 | 0.00 | 53 | 1015.9 |
| 20260905183055 | 36 | 17 | 1.6 | 8.0 | 0.00 | 0.00 | 0.00 | 51 | 1015.9 |
| 20260905182952 | 36 | 17 | 1.6 | 8.0 | 0.00 | 0.00 | 0.00 | 50 | 1015.9 |
| 20260905182852 | 36 | 355 | 1.6 | 8.0 | 0.00 | 0.00 | 0.00 | 52 | 1015.9 |
| 20260905182751 | 36 | 137 | 1.6 | 8.0 | 0.00 | 0.00 | 0.00 | 52 | 1015.9 |
| 20260905182715 | 36 | 138 | 1.6 | 8.0 | 0.00 | 0.00 | 0.00 | 52 | 1015.9 |
| 20260905182704 | 36 | 136 | 1.6 | 8.0 | 0.00 | 0.00 | 0.00 | 53 | 1015.9 |
| 20260905182446 | 36 | 138 | 3.2 | 8.0 | 0.00 | 0.00 | 0.00 | 52 | 1016.0 |
| 20260905182347 | 36 | 263 | 3.2 | 8.0 | 0.00 | 0.00 | 0.00 | 52 | 1015.9 |
| 20260905182315 | 36 | 206 | 3.2 | 8.0 | 0.00 | 0.00 | 0.00 | 52 | 1015.9 |
| 20260905182305 | 36 | 252 | 3.2 | 8.0 | 0.00 | 0.00 | 0.00 | 52 | 1016.0 |
| 20260905182043 | 36 | 206 | 3.2 | 8.0 | 0.00 | 0.00 | 0.00 | 51 | 1016.0 |
| 20260905181939 | 36 | 290 | 3.2 | 8.0 | 0.00 | 0.00 | 0.00 | 51 | 1016.0 |
| 20260905181840 | 36 | 290 | 3.2 | 8.0 | 0.00 | 0.00 | 0.00 | 52 | 1016.1 |
| 20260905181741 | 36 | 290 | 3.2 | 8.0 | 0.00 | 0.00 | 0.00 | 52 | 1016.1 |
| 20260905181640 | 36 | 300 | 3.2 | 8.0 | 0.00 | 0.00 | 0.00 | 52 | 1016.1 |
| 20260905181534 | 36 | 341 | 3.2 | 8.0 | 0.00 | 0.00 | 0.00 | 53 | 1016.1 |
| 20260905181503 | 36 | 13 | 1.6 | 8.0 | 0.00 | 0.00 | 0.00 | 53 | 1016.1 |
| 20260905181450 | 36 | 11 | 3.2 | 8.0 | 0.00 | 0.00 | 0.00 | 52 | 1016.1 |
| 20260905181301 | 36 | 14 | 3.2 | 8.0 | 0.00 | 0.00 | 0.00 | 51 | 1016.1 |
| 20260905181249 | 36 | 14 | 3.2 | 8.0 | 0.00 | 0.00 | 0.00 | 52 | 1016.2 |
| 20260905181028 | 36 | 5 | 3.2 | 8.0 | 0.00 | 0.00 | 0.00 | 52 | 1016.1 |
| 20260905180927 | 36 | 24 | 1.6 | 8.0 | 0.00 | 0.00 | 0.00 | 52 | 1016.2 |
| 20260905180829 | 36 | 24 | 1.6 | 8.0 | 0.00 | 0.00 | 0.00 | 52 | 1016.1 |
| 20260905180726 | 35 | 33 | 1.6 | 8.0 | 0.00 | 0.00 | 0.00 | 53 | 1016.2 |
| 20260905180650 | 35 | 36 | 1.6 | 8.0 | 0.00 | 0.00 | 0.00 | 54 | 1016.2 |
| 20260905180638 | 35 | 36 | 1.6 | 8.0 | 0.00 | 0.00 | 0.00 | 54 | 1016.2 |
| 20260905180422 | 35 | 36 | 1.6 | 8.0 | 0.00 | 0.00 | 0.00 | 52 | 1016.2 |
| 20260905180344 | 35 | 36 | 3.2 | 8.0 | 0.00 | 0.00 | 0.00 | 53 | 1016.3 |
| 20260905180334 | 35 | 36 | 1.6 | 8.0 | 0.00 | 0.00 | 0.00 | 53 | 1016.2 |
| 20260905180119 | 35 | 33 | 3.2 | 8.0 | 0.00 | 0.00 | 0.00 | 52 | 1016.2 |
| 20260905180021 | 35 | 24 | 3.2 | 8.0 | 0.00 | 0.00 | 0.00 | 53 | 1016.3 |
| 20260905175947 | 35 | 23 | 3.2 | 8.0 | 0.00 | 0.00 | 0.00 | 53 | 1016.3 |
| 20260905175935 | 35 | 23 | 3.2 | 8.0 | 0.00 | 0.00 | 0.00 | 53 | 1016.3 |
| 20260905175719 | 35 | 23 | 3.2 | 8.0 | 0.00 | 0.00 | 0.00 | 53 | 1016.3 |
| 20260905175619 | 35 | 23 | 3.2 | 8.0 | 0.00 | 0.00 | 0.00 | 53 | 1016.3 |
| 20260905175541 | 35 | 38 | 3.2 | 8.0 | 0.00 | 0.00 | 0.00 | 54 | 1016.4 |
| 20260905175528 | 35 | 38 | 3.2 | 8.0 | 0.00 | 0.00 | 0.00 | 54 | 1016.4 |
| 20260905175342 | 35 | 39 | 3.2 | 8.0 | 0.00 | 0.00 | 0.00 | 53 | 1016.4 |
| 20260905175329 | 35 | 39 | 3.2 | 8.0 | 0.00 | 0.00 | 0.00 | 53 | 1016.4 |
| 20260905175114 | 35 | 34 | 1.6 | 8.0 | 0.00 | 0.00 | 0.00 | 53 | 1016.5 |
| 20260905175014 | 35 | 355 | 1.6 | 6.4 | 0.00 | 0.00 | 0.00 | 53 | 1016.4 |
| 20260905174912 | 35 | 319 | 1.6 | 4.8 | 0.00 | 0.00 | 0.00 | 53 | 1016.4 |
| 20260905174813 | 35 | 316 | 1.6 | 8.0 | 0.00 | 0.00 | 0.00 | 53 | 1016.4 |
| 20260905174709 | 35 | 298 | 1.6 | 8.0 | 0.00 | 0.00 | 0.00 | 55 | 1016.5 |
| 20260905174610 | 35 | 294 | 1.6 | 8.0 | 0.00 | 0.00 | 0.00 | 56 | 1016.4 |
| 20260905174508 | 35 | 287 | 3.2 | 8.0 | 0.00 | 0.00 | 0.00 | 57 | 1016.4 |
| 20260905174405 | 35 | 287 | 3.2 | 8.0 | 0.00 | 0.00 | 0.00 | 56 | 1016.4 |
| 20260905174305 | 35 | 287 | 3.2 | 8.0 | 0.00 | 0.00 | 0.00 | 55 | 1016.4 |
| 20260905174204 | 35 | 287 | 3.2 | 12.9 | 0.00 | 0.00 | 0.00 | 55 | 1016.4 |
| 20260905174104 | 35 | 287 | 3.2 | 12.9 | 0.00 | 0.00 | 0.00 | 56 | 1016.5 |
| 20260905174003 | 35 | 287 | 3.2 | 12.9 | 0.00 | 0.00 | 0.00 | 55 | 1016.4 |
| 20260905173904 | 35 | 284 | 3.2 | 12.9 | 0.00 | 0.00 | 0.00 | 55 | 1016.4 |
| 20260905173758 | 35 | 285 | 1.6 | 12.9 | 0.00 | 0.00 | 0.00 | 55 | 1016.4 |
| 20260905173658 | 35 | 345 | 1.6 | 12.9 | 0.00 | 0.00 | 0.00 | 56 | 1016.5 |
| 20260905173558 | 35 | 304 | 1.6 | 12.9 | 0.00 | 0.00 | 0.00 | 57 | 1016.4 |
| 20260905173525 | 35 | 302 | 1.6 | 12.9 | 0.00 | 0.00 | 0.00 | 57 | 1016.5 |
| 20260905173513 | 35 | 304 | 1.6 | 12.9 | 0.00 | 0.00 | 0.00 | 56 | 1016.5 |
| 20260905173251 | 35 | 304 | 3.2 | 12.9 | 0.00 | 0.00 | 0.00 | 55 | 1016.5 |
| 20260905173151 | 35 | 302 | 3.2 | 12.9 | 0.00 | 0.00 | 0.00 | 56 | 1016.4 |
| 20260905173051 | 35 | 299 | 3.2 | 12.9 | 0.00 | 0.00 | 0.00 | 56 | 1016.5 |
| 20260905172951 | 35 | 299 | 3.2 | 12.9 | 0.00 | 0.00 | 0.00 | 55 | 1016.5 |
| 20260905172851 | 35 | 300 | 4.8 | 12.9 | 0.00 | 0.00 | 0.00 | 56 | 1016.6 |
| 20260905172749 | 35 | 300 | 3.2 | 12.9 | 0.00 | 0.00 | 0.00 | 56 | 1016.6 |
| 20260905172646 | 35 | 302 | 3.2 | 12.9 | 0.00 | 0.00 | 0.00 | 56 | 1016.6 |
| 20260905172543 | 35 | 302 | 3.2 | 12.9 | 0.00 | 0.00 | 0.00 | 56 | 1016.6 |
| 20260905172510 | 35 | 300 | 3.2 | 12.9 | 0.00 | 0.00 | 0.00 | 55 | 1016.6 |
| 20260905172457 | 35 | 302 | 4.8 | 12.9 | 0.00 | 0.00 | 0.00 | 56 | 1016.6 |
| 20260905172236 | 35 | 45 | 4.8 | 12.9 | 0.00 | 0.00 | 0.00 | 55 | 1016.6 |
| 20260905172202 | 35 | 39 | 3.2 | 14.5 | 0.00 | 0.00 | 0.00 | 56 | 1016.7 |
| 20260905172151 | 35 | 61 | 3.2 | 14.5 | 0.00 | 0.00 | 0.00 | 56 | 1016.7 |
| 20260905172003 | 35 | 355 | 3.2 | 14.5 | 0.00 | 0.00 | 0.00 | 59 | 1016.8 |
| 20260905171951 | 35 | 32 | 3.2 | 14.5 | 0.00 | 0.00 | 0.00 | 57 | 1016.6 |
| 20260905171731 | 35 | 330 | 3.2 | 14.5 | 0.00 | 0.00 | 0.00 | 58 | 1016.7 |
| 20260905171629 | 34 | 330 | 3.2 | 14.5 | 0.00 | 0.00 | 0.00 | 57 | 1016.7 |
| 20260905171530 | 34 | 278 | 3.2 | 14.5 | 0.00 | 0.00 | 0.00 | 58 | 1016.8 |
| 20260905171429 | 34 | 347 | 3.2 | 14.5 | 0.00 | 0.00 | 0.00 | 58 | 1016.9 |
| 20260905171329 | 34 | 349 | 3.2 | 14.5 | 0.00 | 0.00 | 0.00 | 58 | 1016.9 |
| 20260905171225 | 34 | 303 | 1.6 | 14.5 | 0.00 | 0.00 | 0.00 | 60 | 1016.9 |
| 20260905171124 | 34 | 25 | 1.6 | 8.0 | 0.00 | 0.00 | 0.00 | 59 | 1016.8 |
| 20260905171021 | 34 | 24 | 1.6 | 8.0 | 0.00 | 0.00 | 0.00 | 61 | 1016.9 |
| 20260905170922 | 34 | 348 | 1.6 | 8.0 | 0.00 | 0.00 | 0.00 | 62 | 1016.9 |
| 20260905170820 | 34 | 348 | 1.6 | 8.0 | 0.00 | 0.00 | 0.00 | 61 | 1016.9 |
| 20260905170715 | 34 | 348 | 1.6 | 8.0 | 0.00 | 0.00 | 0.00 | 61 | 1017.0 |
| 20260905170614 | 34 | 0 | 1.6 | 8.0 | 0.00 | 0.00 | 0.00 | 62 | 1016.9 |
| 20260905170514 | 33 | 355 | 1.6 | 6.4 | 0.00 | 0.00 | 0.00 | 61 | 1016.9 |
| 20260905170413 | 33 | 355 | 1.6 | 6.4 | 0.00 | 0.00 | 0.00 | 62 | 1016.9 |
| 20260905170314 | 33 | 355 | 1.6 | 6.4 | 0.00 | 0.00 | 0.00 | 62 | 1017.0 |
| 20260905170213 | 33 | 355 | 1.6 | 6.4 | 0.00 | 0.00 | 0.00 | 61 | 1016.9 |
| 20260905170112 | 33 | 343 | 1.6 | 6.4 | 0.00 | 0.00 | 0.00 | 61 | 1016.9 |
| 20260905170012 | 33 | 343 | 1.6 | 6.4 | 0.00 | 0.00 | 0.00 | 61 | 1016.9 |
| 20260905165910 | 33 | 343 | 1.6 | 6.4 | 0.00 | 0.00 | 0.00 | 61 | 1016.9 |
| 20260905165808 | 33 | 340 | 1.6 | 6.4 | 0.00 | 0.00 | 0.00 | 62 | 1016.9 |
| 20260905165704 | 33 | 326 | 1.6 | 6.4 | 0.00 | 0.00 | 0.00 | 63 | 1016.9 |
| 20260905165630 | 33 | 322 | 1.6 | 6.4 | 0.00 | 0.00 | 0.00 | 63 | 1017.0 |
| 20260905165617 | 33 | 323 | 1.6 | 6.4 | 0.00 | 0.00 | 0.00 | 63 | 1017.0 |
| 20260905165359 | 33 | 314 | 1.6 | 6.4 | 0.00 | 0.00 | 0.00 | 64 | 1017.0 |
| 20260905165259 | 33 | 79 | 1.6 | 3.2 | 0.00 | 0.00 | 0.00 | 65 | 1016.9 |
| 20260905165154 | 33 | 79 | 1.6 | 3.2 | 0.00 | 0.00 | 0.00 | 66 | 1017.0 |
| 20260905165052 | 33 | 80 | 1.6 | 3.2 | 0.00 | 0.00 | 0.00 | 65 | 1017.0 |
| 20260905164953 | 33 | 80 | 1.6 | 3.2 | 0.00 | 0.00 | 0.00 | 66 | 1017.0 |
| 20260905164851 | 33 | 80 | 1.6 | 3.2 | 0.00 | 0.00 | 0.00 | 66 | 1017.0 |
| 20260905164752 | 33 | 80 | 1.6 | 3.2 | 0.00 | 0.00 | 0.00 | 67 | 1017.0 |
| 20260905164650 | 32 | 79 | 1.6 | 3.2 | 0.00 | 0.00 | 0.00 | 66 | 1017.1 |
| 20260905164550 | 32 | 72 | 1.6 | 3.2 | 0.00 | 0.00 | 0.00 | 65 | 1017.1 |
| 20260905164515 | 32 | 340 | 1.6 | 3.2 | 0.00 | 0.00 | 0.00 | 65 | 1017.2 |
| 20260905164503 | 32 | 340 | 1.6 | 3.2 | 0.00 | 0.00 | 0.00 | 65 | 1017.1 |
| 20260905164246 | 32 | 340 | 1.6 | 3.2 | 0.00 | 0.00 | 0.00 | 65 | 1017.1 |
| 20260905164141 | 32 | 340 | 1.6 | 3.2 | 0.00 | 0.00 | 0.00 | 66 | 1017.1 |
| 20260905164039 | 32 | 340 | 1.6 | 3.2 | 0.00 | 0.00 | 0.00 | 66 | 1017.3 |
| 20260905163940 | 32 | 340 | 1.6 | 6.4 | 0.00 | 0.00 | 0.00 | 67 | 1017.2 |
| 20260905163837 | 32 | 340 | 1.6 | 6.4 | 0.00 | 0.00 | 0.00 | 67 | 1017.2 |
| 20260905163735 | 32 | 340 | 1.6 | 6.4 | 0.00 | 0.00 | 0.00 | 67 | 1017.3 |
| 20260905163629 | 32 | 340 | 1.6 | 6.4 | 0.00 | 0.00 | 0.00 | 66 | 1017.3 |
| 20260905163555 | 32 | 340 | 1.6 | 6.4 | 0.00 | 0.00 | 0.00 | 66 | 1017.3 |
| 20260905163544 | 32 | 340 | 1.6 | 6.4 | 0.00 | 0.00 | 0.00 | 67 | 1017.2 |
| 20260905163330 | 32 | 340 | 1.6 | 6.4 | 0.00 | 0.00 | 0.00 | 66 | 1017.3 |
| 20260905163252 | 32 | 340 | 1.6 | 6.4 | 0.00 | 0.00 | 0.00 | 66 | 1017.3 |
| 20260905163241 | 32 | 340 | 1.6 | 6.4 | 0.00 | 0.00 | 0.00 | 66 | 1017.3 |
| 20260905163024 | 32 | 338 | 1.6 | 6.4 | 0.00 | 0.00 | 0.00 | 66 | 1017.3 |
| 20260905162923 | 32 | 338 | 1.6 | 6.4 | 0.00 | 0.00 | 0.00 | 66 | 1017.4 |
| 20260905162824 | 32 | 338 | 1.6 | 6.4 | 0.00 | 0.00 | 0.00 | 67 | 1017.4 |
| 20260905162724 | 32 | 338 | 1.6 | 6.4 | 0.00 | 0.00 | 0.00 | 66 | 1017.4 |
| 20260905162649 | 32 | 0 | 1.6 | 6.4 | 0.00 | 0.00 | 0.00 | 67 | 1017.4 |
| 20260905162637 | 32 | 341 | 1.6 | 6.4 | 0.00 | 0.00 | 0.00 | 68 | 1017.5 |
| 20260905162422 | 32 | 0 | 1.6 | 6.4 | 0.00 | 0.00 | 0.00 | 69 | 1017.4 |
| 20260905162320 | 32 | 327 | 1.6 | 6.4 | 0.00 | 0.00 | 0.00 | 67 | 1017.4 |
| 20260905162220 | 32 | 329 | 1.6 | 6.4 | 0.00 | 0.00 | 0.00 | 66 | 1017.4 |
| 20260905162118 | 32 | 333 | 1.6 | 6.4 | 0.00 | 0.00 | 0.00 | 67 | 1017.4 |
| 20260905162015 | 32 | 291 | 1.6 | 6.4 | 0.00 | 0.00 | 0.00 | 68 | 1017.4 |
| 20260905161916 | 32 | 291 | 1.6 | 6.4 | 0.00 | 0.00 | 0.00 | 69 | 1017.3 |
| 20260905161814 | 32 | 291 | 1.6 | 6.4 | 0.00 | 0.00 | 0.00 | 68 | 1017.4 |
| 20260905161738 | 32 | 290 | 1.6 | 6.4 | 0.00 | 0.00 | 0.00 | 70 | 1017.4 |
| 20260905161727 | 32 | 290 | 1.6 | 6.4 | 0.00 | 0.00 | 0.00 | 70 | 1017.4 |
| 20260905161514 | 32 | 290 | 1.6 | 6.4 | 0.00 | 0.00 | 0.00 | 69 | 1017.4 |
| 20260905161438 | 32 | 290 | 1.6 | 6.4 | 0.00 | 0.00 | 0.00 | 69 | 1017.3 |
| 20260905161428 | 32 | 290 | 1.6 | 6.4 | 0.00 | 0.00 | 0.00 | 69 | 1017.4 |
| 20260905161211 | 32 | 290 | 1.6 | 6.4 | 0.00 | 0.00 | 0.00 | 68 | 1017.3 |
| 20260905161112 | 32 | 260 | 1.6 | 6.4 | 0.00 | 0.00 | 0.00 | 68 | 1017.4 |
| 20260905161011 | 32 | 257 | 1.6 | 6.4 | 0.00 | 0.00 | 0.00 | 69 | 1017.4 |
| 20260905160911 | 32 | 289 | 1.6 | 6.4 | 0.00 | 0.00 | 0.00 | 70 | 1017.4 |
| 20260905160812 | 31 | 329 | 1.6 | 6.4 | 0.00 | 0.00 | 0.00 | 69 | 1017.4 |
| 20260905160711 | 31 | 338 | 1.6 | 6.4 | 0.00 | 0.00 | 0.00 | 69 | 1017.4 |
| 20260905160610 | 31 | 338 | 1.6 | 6.4 | 0.00 | 0.00 | 0.00 | 68 | 1017.3 |
| 20260905160508 | 31 | 338 | 1.6 | 6.4 | 0.00 | 0.00 | 0.00 | 68 | 1017.4 |
| 20260905160403 | 31 | 338 | 1.6 | 6.4 | 0.00 | 0.00 | 0.00 | 69 | 1017.4 |
| 20260905160302 | 31 | 338 | 1.6 | 6.4 | 0.00 | 0.00 | 0.00 | 68 | 1017.4 |
| 20260905160202 | 31 | 339 | 1.6 | 6.4 | 0.00 | 0.00 | 0.00 | 68 | 1017.4 |
| 20260905160002 | 31 | 327 | 1.6 | 6.4 | 0.00 | 0.00 | 0.00 | 68 | 1017.4 |
| 20260905155902 | 31 | 327 | 1.6 | 6.4 | 0.00 | 0.00 | 0.00 | 70 | 1017.5 |
| 20260905155800 | 31 | 327 | 1.6 | 6.4 | 0.00 | 0.00 | 0.00 | 70 | 1017.4 |
| 20260905155657 | 31 | 327 | 1.6 | 6.4 | 0.00 | 0.00 | 0.00 | 71 | 1017.4 |
| 20260905155558 | 31 | 327 | 1.6 | 6.4 | 0.00 | 0.00 | 0.00 | 71 | 1017.4 |
| 20260905155455 | 31 | 327 | 1.6 | 6.4 | 0.00 | 0.00 | 0.00 | 71 | 1017.4 |
| 20260905155419 | 31 | 187 | 1.6 | 3.2 | 0.00 | 0.00 | 0.00 | 72 | 1017.4 |
| 20260905155406 | 31 | 327 | 1.6 | 4.8 | 0.00 | 0.00 | 0.00 | 72 | 1017.3 |
| 20260905155149 | 31 | 187 | 1.6 | 3.2 | 0.00 | 0.00 | 0.00 | 73 | 1017.3 |
| 20260905155047 | 31 | 187 | 1.6 | 3.2 | 0.00 | 0.00 | 0.00 | 72 | 1017.3 |
| 20260905154946 | 31 | 187 | 1.6 | 3.2 | 0.00 | 0.00 | 0.00 | 72 | 1017.3 |
| 20260905154841 | 31 | 187 | 1.6 | 3.2 | 0.00 | 0.00 | 0.00 | 72 | 1017.3 |
| 20260905154739 | 31 | 187 | 1.6 | 4.8 | 0.00 | 0.00 | 0.00 | 73 | 1017.3 |
| 20260905154640 | 31 | 187 | 1.6 | 4.8 | 0.00 | 0.00 | 0.00 | 72 | 1017.3 |
| 20260905154540 | 31 | 187 | 1.6 | 4.8 | 0.00 | 0.00 | 0.00 | 71 | 1017.4 |
| 20260905154440 | 31 | 187 | 1.6 | 4.8 | 0.00 | 0.00 | 0.00 | 71 | 1017.3 |
| 20260905154333 | 31 | 187 | 1.6 | 4.8 | 0.00 | 0.00 | 0.00 | 71 | 1017.3 |
| 20260905154234 | 31 | 186 | 1.6 | 4.8 | 0.00 | 0.00 | 0.00 | 72 | 1017.4 |
| 20260905154134 | 31 | 186 | 1.6 | 4.8 | 0.00 | 0.00 | 0.00 | 73 | 1017.4 |
| 20260905154034 | 31 | 185 | 1.6 | 4.8 | 0.00 | 0.00 | 0.00 | 72 | 1017.4 |
| 20260905153934 | 30 | 185 | 1.6 | 4.8 | 0.00 | 0.00 | 0.00 | 71 | 1017.3 |
| 20260905153829 | 30 | 185 | 1.6 | 4.8 | 0.00 | 0.00 | 0.00 | 70 | 1017.3 |
| 20260905153728 | 30 | 185 | 1.6 | 4.8 | 0.00 | 0.00 | 0.00 | 70 | 1017.4 |
| 20260905153625 | 30 | 185 | 1.6 | 4.8 | 0.00 | 0.00 | 0.00 | 71 | 1017.3 |
| 20260905153539 | 30 | 185 | 1.6 | 4.8 | 0.00 | 0.00 | 0.00 | 71 | 1017.4 |
| 20260905153534 | 30 | 185 | 1.6 | 4.8 | 0.00 | 0.00 | 0.00 | 71 | 1017.5 |
| 20260905153526 | 30 | 185 | 1.6 | 4.8 | 0.00 | 0.00 | 0.00 | 71 | 1017.4 |
| 20260905153519 | 30 | 185 | 1.6 | 4.8 | 0.00 | 0.00 | 0.00 | 71 | 1017.5 |
| 20260905153503 | 30 | 185 | 1.6 | 4.8 | 0.00 | 0.00 | 0.00 | 71 | 1017.4 |
| 20260905153046 | 30 | 185 | 1.6 | 4.8 | 0.00 | 0.00 | 0.00 | 72 | 1017.6 |
| 20260905153033 | 30 | 185 | 1.6 | 4.8 | 0.00 | 0.00 | 0.00 | 72 | 1017.5 |
| 20260905152817 | 30 | 185 | 1.6 | 4.8 | 0.00 | 0.00 | 0.00 | 73 | 1017.5 |
| 20260905152718 | 30 | 185 | 1.6 | 3.2 | 0.00 | 0.00 | 0.00 | 75 | 1017.6 |
| 20260905152618 | 30 | 185 | 1.6 | 3.2 | 0.00 | 0.00 | 0.00 | 74 | 1017.5 |
| 20260905152542 | 30 | 185 | 0.0 | 3.2 | 0.00 | 0.00 | 0.00 | 75 | 1017.5 |
| 20260905152532 | 30 | 185 | 1.6 | 3.2 | 0.00 | 0.00 | 0.00 | 73 | 1017.5 |
| 20260905152317 | 30 | 185 | 0.0 | 3.2 | 0.00 | 0.00 | 0.00 | 74 | 1017.5 |
| 20260905152217 | 30 | 185 | 0.0 | 3.2 | 0.00 | 0.00 | 0.00 | 73 | 1017.5 |
| 20260905152118 | 30 | 185 | 0.0 | 3.2 | 0.00 | 0.00 | 0.00 | 73 | 1017.4 |
| 20260905152016 | 30 | 185 | 0.0 | 3.2 | 0.00 | 0.00 | 0.00 | 72 | 1017.5 |
| 20260905151915 | 30 | 185 | 0.0 | 3.2 | 0.00 | 0.00 | 0.00 | 73 | 1017.6 |
| 20260905151842 | 29 | 185 | 0.0 | 3.2 | 0.00 | 0.00 | 0.00 | 74 | 1017.5 |
| 20260905151830 | 29 | 185 | 0.0 | 3.2 | 0.00 | 0.00 | 0.00 | 73 | 1017.5 |
| 20260905151616 | 29 | 185 | 0.0 | 3.2 | 0.00 | 0.00 | 0.00 | 75 | 1017.5 |
| 20260905151513 | 29 | 185 | 0.0 | 3.2 | 0.00 | 0.00 | 0.00 | 75 | 1017.6 |
| 20260905151413 | 29 | 185 | 0.0 | 3.2 | 0.00 | 0.00 | 0.00 | 75 | 1017.6 |
| 20260905151314 | 29 | 185 | 0.0 | 3.2 | 0.00 | 0.00 | 0.00 | 75 | 1017.6 |
| 20260905151213 | 29 | 185 | 0.0 | 3.2 | 0.00 | 0.00 | 0.00 | 75 | 1017.6 |
| 20260905151114 | 29 | 185 | 0.0 | 3.2 | 0.00 | 0.00 | 0.00 | 75 | 1017.6 |
| 20260905151013 | 29 | 185 | 0.0 | 3.2 | 0.00 | 0.00 | 0.00 | 75 | 1017.5 |
| 20260905150913 | 29 | 185 | 0.0 | 3.2 | 0.00 | 0.00 | 0.00 | 76 | 1017.5 |
| 20260905150813 | 29 | 185 | 1.6 | 3.2 | 0.00 | 0.00 | 0.00 | 76 | 1017.5 |
| 20260905150742 | 29 | 185 | 1.6 | 3.2 | 0.00 | 0.00 | 0.00 | 77 | 1017.5 |
| 20260905150729 | 29 | 185 | 1.6 | 3.2 | 0.00 | 0.00 | 0.00 | 77 | 1017.5 |
| 20260905150513 | 28 | 185 | 1.6 | 3.2 | 0.00 | 0.00 | 0.00 | 76 | 1017.6 |
| 20260905150414 | 28 | 185 | 1.6 | 3.2 | 0.00 | 0.00 | 0.00 | 76 | 1017.5 |
| 20260905150313 | 28 | 182 | 1.6 | 3.2 | 0.00 | 0.00 | 0.00 | 75 | 1017.5 |
| 20260905150239 | 28 | 182 | 1.6 | 3.2 | 0.00 | 0.00 | 0.00 | 75 | 1017.6 |
| 20260905150227 | 28 | 182 | 1.6 | 3.2 | 0.00 | 0.00 | 0.00 | 75 | 1017.6 |
| 20260905150014 | 28 | 182 | 0.0 | 3.2 | 0.00 | 0.00 | 0.00 | 76 | 1017.6 |
| 20260905145939 | 28 | 182 | 0.0 | 3.2 | 0.00 | 0.00 | 0.00 | 77 | 1017.6 |
| 20260905145929 | 28 | 182 | 0.0 | 3.2 | 0.00 | 0.00 | 0.00 | 77 | 1017.5 |
| 20260905145714 | 28 | 182 | 0.0 | 3.2 | 0.00 | 0.00 | 0.00 | 78 | 1017.6 |
| 20260905145614 | 28 | 182 | 0.0 | 3.2 | 0.00 | 0.00 | 0.00 | 78 | 1017.6 |
| 20260905145515 | 28 | 182 | 0.0 | 1.6 | 0.00 | 0.00 | 0.00 | 79 | 1017.6 |
| 20260905145413 | 28 | 182 | 0.0 | 1.6 | 0.00 | 0.00 | 0.00 | 79 | 1017.6 |
| 20260905145314 | 28 | 182 | 0.0 | 1.6 | 0.00 | 0.00 | 0.00 | 79 | 1017.6 |
| 20260905145242 | 28 | 182 | 0.0 | 3.2 | 0.00 | 0.00 | 0.00 | 79 | 1017.6 |
| 20260905145231 | 28 | 182 | 0.0 | 3.2 | 0.00 | 0.00 | 0.00 | 78 | 1017.6 |
| 20260905145040 | 28 | 182 | 0.0 | 3.2 | 0.00 | 0.00 | 0.00 | 80 | 1017.6 |
| 20260905145028 | 28 | 182 | 0.0 | 3.2 | 0.00 | 0.00 | 0.00 | 80 | 1017.5 |
| 20260905144810 | 28 | 182 | 0.0 | 3.2 | 0.00 | 0.00 | 0.00 | 80 | 1017.7 |
| 20260905144708 | 28 | 182 | 0.0 | 3.2 | 0.00 | 0.00 | 0.00 | 79 | 1017.6 |
| 20260905144609 | 28 | 182 | 0.0 | 3.2 | 0.00 | 0.00 | 0.00 | 79 | 1017.6 |
| 20260905144510 | 28 | 182 | 0.0 | 3.2 | 0.00 | 0.00 | 0.00 | 79 | 1017.6 |
| 20260905144409 | 28 | 182 | 0.0 | 3.2 | 0.00 | 0.00 | 0.00 | 80 | 1017.6 |
| 20260905144333 | 28 | 182 | 0.0 | 3.2 | 0.00 | 0.00 | 0.00 | 81 | 1017.6 |
| 20260905144323 | 28 | 182 | 0.0 | 3.2 | 0.00 | 0.00 | 0.00 | 80 | 1017.7 |
| 20260905144109 | 27 | 182 | 0.0 | 3.2 | 0.00 | 0.00 | 0.00 | 82 | 1017.6 |
| 20260905144010 | 27 | 182 | 0.0 | 3.2 | 0.00 | 0.00 | 0.00 | 82 | 1017.6 |
| 20260905143956 | 27 | 182 | 0.0 | 3.2 | 0.00 | 0.00 | 0.00 | 82 | 1017.6 |
| 20260905143952 | 27 | 182 | 0.0 | 3.2 | 0.00 | 0.00 | 0.00 | 80 | 1017.6 |
| 20260905143938 | 27 | 182 | 0.0 | 3.2 | 0.00 | 0.00 | 0.00 | 82 | 1017.7 |
| 20260905143610 | 27 | 182 | 0.0 | 3.2 | 0.00 | 0.00 | 0.00 | 81 | 1017.7 |
| 20260905143508 | 27 | 182 | 0.0 | 3.2 | 0.00 | 0.00 | 0.00 | 81 | 1017.7 |
| 20260905143409 | 27 | 182 | 0.0 | 3.2 | 0.00 | 0.00 | 0.00 | 81 | 1017.7 |
| 20260905143309 | 27 | 182 | 0.0 | 3.2 | 0.00 | 0.00 | 0.00 | 82 | 1017.7 |
| 20260905143229 | 27 | 182 | 0.0 | 3.2 | 0.00 | 0.00 | 0.00 | 80 | 1017.7 |
| 20260905143225 | 27 | 182 | 0.0 | 3.2 | 0.00 | 0.00 | 0.00 | 80 | 1017.7 |
| 20260905143220 | 27 | 182 | 0.0 | 3.2 | 0.00 | 0.00 | 0.00 | 79 | 1017.7 |
| 20260905143210 | 27 | 182 | 0.0 | 3.2 | 0.00 | 0.00 | 0.00 | 81 | 1017.6 |
| 20260905143153 | 27 | 182 | 0.0 | 3.2 | 0.00 | 0.00 | 0.00 | 81 | 1017.7 |
| 20260905142709 | 27 | 182 | 0.0 | 3.2 | 0.00 | 0.00 | 0.00 | 80 | 1017.7 |
| 20260905142610 | 27 | 182 | 0.0 | 3.2 | 0.00 | 0.00 | 0.00 | 80 | 1017.6 |
| 20260905142511 | 27 | 182 | 0.0 | 3.2 | 0.00 | 0.00 | 0.00 | 80 | 1017.7 |
| 20260905142408 | 27 | 182 | 0.0 | 3.2 | 0.00 | 0.00 | 0.00 | 82 | 1017.7 |
| 20260905142310 | 27 | 182 | 0.0 | 3.2 | 0.00 | 0.00 | 0.00 | 83 | 1017.7 |
| 20260905142234 | 27 | 182 | 0.0 | 3.2 | 0.00 | 0.00 | 0.00 | 83 | 1017.7 |
| 20260905142223 | 27 | 182 | 0.0 | 3.2 | 0.00 | 0.00 | 0.00 | 84 | 1017.7 |
| 20260905142010 | 27 | 182 | 0.0 | 3.2 | 0.00 | 0.00 | 0.00 | 84 | 1017.7 |
| 20260905141936 | 26 | 182 | 0.0 | 3.2 | 0.00 | 0.00 | 0.00 | 82 | 1017.7 |
| 20260905141924 | 27 | 182 | 0.0 | 3.2 | 0.00 | 0.00 | 0.00 | 82 | 1017.7 |
| 20260905141709 | 26 | 182 | 0.0 | 3.2 | 0.00 | 0.00 | 0.00 | 83 | 1017.7 |
| 20260905141610 | 26 | 182 | 0.0 | 1.6 | 0.00 | 0.00 | 0.00 | 83 | 1017.7 |
| 20260905141555 | 26 | 182 | 0.0 | 3.2 | 0.00 | 0.00 | 0.00 | 84 | 1017.7 |
| 20260905141550 | 26 | 182 | 0.0 | 3.2 | 0.00 | 0.00 | 0.00 | 84 | 1017.7 |
| 20260905141536 | 26 | 182 | 0.0 | 3.2 | 0.00 | 0.00 | 0.00 | 84 | 1017.7 |
| 20260905141206 | 26 | 182 | 0.0 | 3.2 | 0.00 | 0.00 | 0.00 | 84 | 1017.7 |
| 20260905141104 | 26 | 182 | 0.0 | 3.2 | 0.00 | 0.00 | 0.00 | 84 | 1017.7 |
| 20260905141003 | 26 | 182 | 0.0 | 3.2 | 0.00 | 0.00 | 0.00 | 85 | 1017.7 |
| 20260905140900 | 26 | 182 | 0.0 | 3.2 | 0.00 | 0.00 | 0.00 | 84 | 1017.8 |
| 20260905140828 | 26 | 182 | 1.6 | 3.2 | 0.00 | 0.00 | 0.00 | 84 | 1017.7 |
| 20260905140815 | 26 | 182 | 1.6 | 3.2 | 0.00 | 0.00 | 0.00 | 84 | 1017.7 |
| 20260905140557 | 26 | 182 | 0.0 | 3.2 | 0.00 | 0.00 | 0.00 | 85 | 1017.7 |
| 20260905140448 | 26 | 182 | 0.0 | 3.2 | 0.00 | 0.00 | 0.00 | 85 | 1017.7 |
| 20260905140348 | 26 | 182 | 0.0 | 3.2 | 0.00 | 0.00 | 0.00 | 85 | 1017.7 |
| 20260905140248 | 26 | 182 | 0.0 | 3.2 | 0.00 | 0.00 | 0.00 | 85 | 1017.6 |
| 20260905140147 | 26 | 182 | 0.0 | 3.2 | 0.00 | 0.00 | 0.00 | 86 | 1017.6 |
| 20260905140114 | 26 | 182 | 0.0 | 3.2 | 0.00 | 0.00 | 0.00 | 86 | 1017.7 |
| 20260905135845 | 26 | 182 | 0.0 | 3.2 | 0.00 | 0.00 | 0.00 | 86 | 1017.6 |
| 20260905135745 | 26 | 182 | 0.0 | 3.2 | 0.00 | 0.00 | 0.00 | 86 | 1017.6 |
| 20260905135644 | 26 | 182 | 0.0 | 0.0 | 0.00 | 0.00 | 0.00 | 86 | 1017.6 |
| 20260905135542 | 26 | 182 | 0.0 | 0.0 | 0.00 | 0.00 | 0.00 | 86 | 1017.6 |
| 20260905135442 | 26 | 182 | 0.0 | 0.0 | 0.00 | 0.00 | 0.00 | 86 | 1017.6 |
| 20260905135338 | 26 | 182 | 0.0 | 0.0 | 0.00 | 0.00 | 0.00 | 87 | 1017.6 |
| 20260905135238 | 26 | 182 | 0.0 | 0.0 | 0.00 | 0.00 | 0.00 | 87 | 1017.6 |
| 20260905135137 | 26 | 182 | 0.0 | 0.0 | 0.00 | 0.00 | 0.00 | 86 | 1017.6 |
| 20260905135035 | 26 | 182 | 0.0 | 0.0 | 0.00 | 0.00 | 0.00 | 87 | 1017.6 |
| 20260905134924 | 26 | 182 | 0.0 | 1.6 | 0.00 | 0.00 | 0.00 | 88 | 1017.6 |
| 20260905134826 | 26 | 182 | 0.0 | 1.6 | 0.00 | 0.00 | 0.00 | 88 | 1017.6 |
| 20260905134725 | 26 | 182 | 0.0 | 1.6 | 0.00 | 0.00 | 0.00 | 89 | 1017.6 |
| 20260905134624 | 26 | 182 | 0.0 | 1.6 | 0.00 | 0.00 | 0.00 | 89 | 1017.6 |
| 20260905134523 | 26 | 182 | 0.0 | 1.6 | 0.00 | 0.00 | 0.00 | 89 | 1017.6 |
| 20260905134423 | 26 | 182 | 0.0 | 1.6 | 0.00 | 0.00 | 0.00 | 89 | 1017.7 |
| 20260905134322 | 26 | 182 | 0.0 | 1.6 | 0.00 | 0.00 | 0.00 | 89 | 1017.7 |
| 20260905134222 | 26 | 182 | 0.0 | 1.6 | 0.00 | 0.00 | 0.00 | 89 | 1017.8 |
| 20260905134119 | 26 | 182 | 0.0 | 1.6 | 0.00 | 0.00 | 0.00 | 89 | 1017.7 |
| 20260905134018 | 26 | 182 | 0.0 | 1.6 | 0.00 | 0.00 | 0.00 | 89 | 1017.7 |
| 20260905133915 | 26 | 182 | 0.0 | 1.6 | 0.00 | 0.00 | 0.00 | 89 | 1017.7 |
| 20260905133815 | 25 | 182 | 0.0 | 1.6 | 0.00 | 0.00 | 0.00 | 89 | 1017.7 |
| 20260905133715 | 25 | 182 | 0.0 | 1.6 | 0.00 | 0.00 | 0.00 | 89 | 1017.6 |
| 20260905133614 | 25 | 182 | 0.0 | 1.6 | 0.00 | 0.00 | 0.00 | 89 | 1017.7 |
| 20260905133510 | 25 | 182 | 0.0 | 1.6 | 0.00 | 0.00 | 0.00 | 89 | 1017.7 |
| 20260905133405 | 25 | 182 | 0.0 | 1.6 | 0.00 | 0.00 | 0.00 | 89 | 1017.7 |
| 20260905133305 | 25 | 182 | 0.0 | 1.6 | 0.00 | 0.00 | 0.00 | 90 | 1017.7 |
| 20260905133206 | 25 | 182 | 0.0 | 1.6 | 0.00 | 0.00 | 0.00 | 90 | 1017.8 |
| 20260905133103 | 25 | 182 | 0.0 | 1.6 | 0.00 | 0.00 | 0.00 | 90 | 1017.8 |
| 20260905133027 | 25 | 182 | 0.0 | 1.6 | 0.00 | 0.00 | 0.00 | 90 | 1017.8 |
| 20260905133016 | 25 | 182 | 0.0 | 1.6 | 0.00 | 0.00 | 0.00 | 90 | 1017.8 |
| 20260905132800 | 25 | 182 | 0.0 | 1.6 | 0.00 | 0.00 | 0.00 | 90 | 1017.8 |
| 20260905132658 | 25 | 182 | 0.0 | 1.6 | 0.00 | 0.00 | 0.00 | 90 | 1017.8 |
| 20260905132558 | 25 | 182 | 0.0 | 1.6 | 0.00 | 0.00 | 0.00 | 90 | 1017.8 |
| 20260905132515 | 25 | 182 | 0.0 | 1.6 | 0.00 | 0.00 | 0.00 | 90 | 1017.7 |
| 20260905132505 | 25 | 182 | 0.0 | 1.6 | 0.00 | 0.00 | 0.00 | 90 | 1017.8 |
| 20260905132315 | 25 | 182 | 0.0 | 1.6 | 0.00 | 0.00 | 0.00 | 91 | 1017.8 |
| 20260905132305 | 25 | 182 | 0.0 | 1.6 | 0.00 | 0.00 | 0.00 | 90 | 1017.8 |
| 20260905132049 | 25 | 182 | 0.0 | 1.6 | 0.00 | 0.00 | 0.00 | 91 | 1017.8 |
| 20260905131949 | 25 | 182 | 0.0 | 1.6 | 0.00 | 0.00 | 0.00 | 91 | 1017.8 |
| 20260905131845 | 25 | 182 | 0.0 | 1.6 | 0.00 | 0.00 | 0.00 | 90 | 1017.8 |
| 20260905131742 | 25 | 182 | 0.0 | 1.6 | 0.00 | 0.00 | 0.00 | 90 | 1017.8 |
| 20260905131730 | 25 | 182 | 0.0 | 1.6 | 0.00 | 0.00 | 0.00 | 90 | 1017.9 |
| 20260905131725 | 25 | 182 | 0.0 | 1.6 | 0.00 | 0.00 | 0.00 | 90 | 1017.8 |
| 20260905131710 | 25 | 182 | 0.0 | 1.6 | 0.00 | 0.00 | 0.00 | 90 | 1017.9 |
| 20260905131337 | 25 | 182 | 0.0 | 1.6 | 0.00 | 0.00 | 0.00 | 90 | 1017.8 |
| 20260905131303 | 25 | 182 | 0.0 | 1.6 | 0.00 | 0.00 | 0.00 | 90 | 1017.9 |
| 20260905131252 | 25 | 182 | 0.0 | 1.6 | 0.00 | 0.00 | 0.00 | 90 | 1017.9 |
| 20260905131035 | 25 | 182 | 0.0 | 1.6 | 0.00 | 0.00 | 0.00 | 90 | 1017.9 |
| 20260905130933 | 25 | 182 | 0.0 | 1.6 | 0.00 | 0.00 | 0.00 | 90 | 1017.8 |
| 20260905130857 | 25 | 182 | 0.0 | 0.0 | 0.00 | 0.00 | 0.00 | 90 | 1017.8 |
| 20260905130846 | 25 | 182 | 0.0 | 1.6 | 0.00 | 0.00 | 0.00 | 90 | 1017.8 |
| 20260905130629 | 25 | 182 | 0.0 | 0.0 | 0.00 | 0.00 | 0.00 | 90 | 1017.9 |
| 20260905130528 | 25 | 182 | 0.0 | 0.0 | 0.00 | 0.00 | 0.00 | 90 | 1017.9 |
| 20260905130427 | 25 | 182 | 0.0 | 0.0 | 0.00 | 0.00 | 0.00 | 90 | 1017.8 |
| 20260905130320 | 25 | 182 | 0.0 | 0.0 | 0.00 | 0.00 | 0.00 | 91 | 1017.8 |
| 20260905130217 | 25 | 182 | 0.0 | 0.0 | 0.00 | 0.00 | 0.00 | 91 | 1017.8 |
| 20260905130205 | 25 | 182 | 0.0 | 0.0 | 0.00 | 0.00 | 0.00 | 91 | 1017.8 |
| 20260905130200 | 24 | 182 | 0.0 | 0.0 | 0.00 | 0.00 | 0.00 | 91 | 1017.8 |
| 20260905130147 | 25 | 182 | 0.0 | 0.0 | 0.00 | 0.00 | 0.00 | 91 | 1017.8 |
| 20260905125813 | 24 | 182 | 0.0 | 0.0 | 0.00 | 0.00 | 0.00 | 91 | 1017.9 |
| 20260905125735 | 24 | 182 | 0.0 | 0.0 | 0.00 | 0.00 | 0.00 | 91 | 1017.8 |
| 20260905125724 | 24 | 182 | 0.0 | 0.0 | 0.00 | 0.00 | 0.00 | 91 | 1017.8 |
| 20260905125512 | 24 | 182 | 0.0 | 0.0 | 0.00 | 0.00 | 0.00 | 91 | 1017.8 |
| 20260905125437 | 24 | 182 | 0.0 | 0.0 | 0.00 | 0.00 | 0.00 | 91 | 1017.8 |
| 20260905125426 | 24 | 182 | 0.0 | 0.0 | 0.00 | 0.00 | 0.00 | 92 | 1017.8 |
| 20260905125209 | 24 | 182 | 0.0 | 0.0 | 0.00 | 0.00 | 0.00 | 91 | 1017.9 |
| 20260905125109 | 24 | 182 | 0.0 | 0.0 | 0.00 | 0.00 | 0.00 | 91 | 1018.0 |
| 20260905125031 | 24 | 182 | 0.0 | 0.0 | 0.00 | 0.00 | 0.00 | 91 | 1018.0 |
| 20260905125020 | 24 | 182 | 0.0 | 0.0 | 0.00 | 0.00 | 0.00 | 91 | 1018.0 |
| 20260905124756 | 24 | 182 | 0.0 | 4.8 | 0.00 | 0.00 | 0.00 | 91 | 1018.0 |
| 20260905124656 | 24 | 182 | 0.0 | 4.8 | 0.00 | 0.00 | 0.00 | 91 | 1018.0 |
| 20260905124621 | 24 | 182 | 0.0 | 4.8 | 0.00 | 0.00 | 0.00 | 91 | 1017.9 |
| 20260905124610 | 24 | 182 | 0.0 | 4.8 | 0.00 | 0.00 | 0.00 | 91 | 1018.0 |
| 20260905124413 | 24 | 182 | 0.0 | 4.8 | 0.00 | 0.00 | 0.00 | 91 | 1018.0 |
| 20260905124404 | 24 | 182 | 0.0 | 4.8 | 0.00 | 0.00 | 0.00 | 91 | 1018.0 |
| 20260905124149 | 24 | 182 | 0.0 | 4.8 | 0.00 | 0.00 | 0.00 | 91 | 1018.0 |
| 20260905124050 | 24 | 182 | 0.0 | 4.8 | 0.00 | 0.00 | 0.00 | 91 | 1017.9 |
| 20260905123949 | 24 | 182 | 0.0 | 4.8 | 0.00 | 0.00 | 0.00 | 91 | 1018.0 |
| 20260905123911 | 24 | 182 | 0.0 | 4.8 | 0.00 | 0.00 | 0.00 | 92 | 1018.0 |
| 20260905123901 | 24 | 182 | 0.0 | 4.8 | 0.00 | 0.00 | 0.00 | 91 | 1018.0 |
| 20260905123648 | 24 | 182 | 0.0 | 4.8 | 0.00 | 0.00 | 0.00 | 92 | 1018.0 |
| 20260905123547 | 24 | 182 | 0.0 | 4.8 | 0.00 | 0.00 | 0.00 | 92 | 1017.9 |
| 20260905123445 | 24 | 182 | 0.0 | 4.8 | 0.00 | 0.00 | 0.00 | 92 | 1018.0 |
| 20260905123344 | 24 | 182 | 0.0 | 4.8 | 0.00 | 0.00 | 0.00 | 92 | 1017.9 |
| 20260905123240 | 24 | 182 | 0.0 | 4.8 | 0.00 | 0.00 | 0.00 | 92 | 1017.9 |
| 20260905123137 | 24 | 178 | 0.0 | 4.8 | 0.00 | 0.00 | 0.00 | 92 | 1017.9 |
| 20260905123037 | 24 | 178 | 0.0 | 4.8 | 0.00 | 0.00 | 0.00 | 92 | 1017.9 |
| 20260905122936 | 24 | 178 | 0.0 | 4.8 | 0.00 | 0.00 | 0.00 | 92 | 1017.9 |
| 20260905122833 | 24 | 178 | 0.0 | 4.8 | 0.00 | 0.00 | 0.00 | 92 | 1017.9 |
| 20260905122728 | 23 | 177 | 0.0 | 3.2 | 0.00 | 0.00 | 0.00 | 92 | 1017.8 |
| 20260905122627 | 23 | 177 | 0.0 | 3.2 | 0.00 | 0.00 | 0.00 | 93 | 1017.8 |
| 20260905122527 | 23 | 177 | 0.0 | 3.2 | 0.00 | 0.00 | 0.00 | 93 | 1017.7 |
| 20260905122427 | 23 | 177 | 0.0 | 3.2 | 0.00 | 0.00 | 0.00 | 93 | 1017.7 |
| 20260905122328 | 23 | 177 | 0.0 | 3.2 | 0.00 | 0.00 | 0.00 | 93 | 1017.8 |
| 20260905122228 | 23 | 177 | 0.0 | 3.2 | 0.00 | 0.00 | 0.00 | 93 | 1017.8 |
| 20260905122124 | 23 | 177 | 0.0 | 3.2 | 0.00 | 0.00 | 0.00 | 93 | 1017.7 |
| 20260905122112 | 23 | 177 | 0.0 | 3.2 | 0.00 | 0.00 | 0.00 | 93 | 1017.7 |
| 20260905122107 | 23 | 177 | 0.0 | 3.2 | 0.00 | 0.00 | 0.00 | 93 | 1017.7 |
| 20260905122053 | 23 | 177 | 0.0 | 3.2 | 0.00 | 0.00 | 0.00 | 93 | 1017.7 |
| 20260905121717 | 23 | 177 | 0.0 | 3.2 | 0.00 | 0.00 | 0.00 | 93 | 1017.7 |
| 20260905121616 | 23 | 177 | 0.0 | 3.2 | 0.00 | 0.00 | 0.00 | 93 | 1017.7 |
| 20260905121516 | 23 | 177 | 0.0 | 3.2 | 0.00 | 0.00 | 0.00 | 93 | 1017.7 |
| 20260905121413 | 23 | 177 | 0.0 | 3.2 | 0.00 | 0.00 | 0.00 | 93 | 1017.7 |
| 20260905121311 | 23 | 177 | 0.0 | 3.2 | 0.00 | 0.00 | 0.00 | 92 | 1017.7 |
| 20260905121234 | 23 | 177 | 0.0 | 3.2 | 0.00 | 0.00 | 0.00 | 92 | 1017.7 |
| 20260905121224 | 23 | 177 | 0.0 | 3.2 | 0.00 | 0.00 | 0.00 | 92 | 1017.7 |
| 20260905121009 | 23 | 177 | 1.6 | 3.2 | 0.00 | 0.00 | 0.00 | 92 | 1017.7 |
| 20260905120907 | 23 | 177 | 1.6 | 3.2 | 0.00 | 0.00 | 0.00 | 92 | 1017.7 |
| 20260905120805 | 23 | 177 | 1.6 | 3.2 | 0.00 | 0.00 | 0.00 | 92 | 1017.7 |
| 20260905120706 | 23 | 177 | 1.6 | 3.2 | 0.00 | 0.00 | 0.00 | 92 | 1017.6 |
| 20260905120603 | 23 | 177 | 1.6 | 3.2 | 0.00 | 0.00 | 0.00 | 92 | 1017.5 |
| 20260905120502 | 23 | 177 | 1.6 | 3.2 | 0.00 | 0.00 | 0.00 | 93 | 1017.5 |
| 20260905120401 | 23 | 177 | 1.6 | 3.2 | 0.00 | 0.00 | 0.00 | 93 | 1017.4 |
| 20260905120259 | 23 | 175 | 0.0 | 3.2 | 0.00 | 0.00 | 0.00 | 93 | 1017.5 |
| 20260905120217 | 23 | 165 | 0.0 | 1.6 | 0.00 | 0.00 | 0.00 | 93 | 1017.5 |
| 20260905120204 | 23 | 165 | 0.0 | 3.2 | 0.00 | 0.00 | 0.00 | 93 | 1017.5 |
| 20260905115949 | 23 | 165 | 0.0 | 1.6 | 0.00 | 0.00 | 0.00 | 93 | 1017.4 |
| 20260905115849 | 23 | 165 | 0.0 | 1.6 | 0.00 | 0.00 | 0.00 | 93 | 1017.4 |
| 20260905115749 | 23 | 165 | 0.0 | 0.0 | 0.00 | 0.00 | 0.00 | 92 | 1017.4 |
| 20260905115646 | 23 | 165 | 0.0 | 0.0 | 0.00 | 0.00 | 0.00 | 92 | 1017.4 |
| 20260905115547 | 23 | 165 | 0.0 | 0.0 | 0.00 | 0.00 | 0.00 | 92 | 1017.5 |
| 20260905115448 | 23 | 165 | 0.0 | 0.0 | 0.00 | 0.00 | 0.00 | 92 | 1017.4 |
| 20260905115345 | 23 | 165 | 0.0 | 0.0 | 0.00 | 0.00 | 0.00 | 92 | 1017.5 |
| 20260905115243 | 23 | 165 | 0.0 | 0.0 | 0.00 | 0.00 | 0.00 | 92 | 1017.4 |
| 20260905115144 | 23 | 165 | 0.0 | 0.0 | 0.00 | 0.00 | 0.00 | 92 | 1017.5 |
| 20260905115041 | 23 | 165 | 0.0 | 0.0 | 0.00 | 0.00 | 0.00 | 92 | 1017.4 |
| 20260905114939 | 23 | 165 | 0.0 | 0.0 | 0.00 | 0.00 | 0.00 | 92 | 1017.4 |
| 20260905114839 | 23 | 165 | 0.0 | 0.0 | 0.00 | 0.00 | 0.00 | 92 | 1017.4 |
| 20260905114737 | 23 | 165 | 0.0 | 0.0 | 0.00 | 0.00 | 0.00 | 92 | 1017.4 |
| 20260905114628 | 23 | 165 | 0.0 | 1.6 | 0.00 | 0.00 | 0.00 | 92 | 1017.4 |
| 20260905114528 | 23 | 165 | 0.0 | 1.6 | 0.00 | 0.00 | 0.00 | 92 | 1017.4 |
| 20260905114453 | 23 | 165 | 0.0 | 1.6 | 0.00 | 0.00 | 0.00 | 92 | 1017.3 |
| 20260905114441 | 23 | 165 | 0.0 | 1.6 | 0.00 | 0.00 | 0.00 | 92 | 1017.3 |
| 20260905114227 | 23 | 165 | 0.0 | 1.6 | 0.00 | 0.00 | 0.00 | 92 | 1017.3 |
| 20260905114126 | 23 | 165 | 0.0 | 1.6 | 0.00 | 0.00 | 0.00 | 92 | 1017.3 |
| 20260905114025 | 23 | 165 | 0.0 | 1.6 | 0.00 | 0.00 | 0.00 | 92 | 1017.3 |
| 20260905113923 | 23 | 165 | 0.0 | 1.6 | 0.00 | 0.00 | 0.00 | 92 | 1017.2 |
| 20260905113823 | 23 | 165 | 0.0 | 1.6 | 0.00 | 0.00 | 0.00 | 91 | 1017.3 |
| 20260905113721 | 23 | 165 | 0.0 | 1.6 | 0.00 | 0.00 | 0.00 | 91 | 1017.3 |
| 20260905113621 | 23 | 165 | 0.0 | 1.6 | 0.00 | 0.00 | 0.00 | 91 | 1017.2 |
| 20260905113546 | 23 | 165 | 0.0 | 1.6 | 0.00 | 0.00 | 0.00 | 91 | 1017.2 |
| 20260905113535 | 23 | 165 | 0.0 | 1.6 | 0.00 | 0.00 | 0.00 | 91 | 1017.2 |
| 20260905113320 | 23 | 165 | 0.0 | 1.6 | 0.00 | 0.00 | 0.00 | 91 | 1017.2 |
| 20260905113314 | 23 | 165 | 0.0 | 1.6 | 0.00 | 0.00 | 0.00 | 91 | 1017.2 |
| 20260905113309 | 23 | 165 | 0.0 | 1.6 | 0.00 | 0.00 | 0.00 | 91 | 1017.1 |
| 20260905113254 | 23 | 165 | 0.0 | 0.0 | 0.00 | 0.00 | 0.00 | 91 | 1017.2 |
| 20260905113139 | 23 | 165 | 0.0 | 1.6 | 0.00 | 0.00 | 0.00 | 91 | 1017.1 |
| 20260905113126 | 23 | 165 | 0.0 | 0.0 | 0.00 | 0.00 | 0.00 | 91 | 1017.1 |
| 20260905113110 | 23 | 165 | 0.0 | 0.0 | 0.00 | 0.00 | 0.00 | 91 | 1017.2 |
| 20260905112949 | 23 | 165 | 0.0 | 1.6 | 0.00 | 0.00 | 0.00 | 91 | 1017.1 |
| 20260905112502 | 23 | 165 | 0.0 | 1.6 | 0.00 | 0.00 | 0.00 | 91 | 1017.2 |
| 20260905112404 | 23 | 165 | 0.0 | 1.6 | 0.00 | 0.00 | 0.00 | 91 | 1017.2 |
| 20260905112300 | 23 | 165 | 0.0 | 1.6 | 0.00 | 0.00 | 0.00 | 91 | 1017.2 |
| 20260905112159 | 23 | 165 | 0.0 | 1.6 | 0.00 | 0.00 | 0.00 | 91 | 1017.2 |
| 20260905112052 | 23 | 165 | 0.0 | 1.6 | 0.00 | 0.00 | 0.00 | 91 | 1017.2 |
| 20260905111953 | 23 | 165 | 0.0 | 1.6 | 0.00 | 0.00 | 0.00 | 91 | 1017.1 |
| 20260905111852 | 23 | 165 | 0.0 | 1.6 | 0.00 | 0.00 | 0.00 | 91 | 1017.1 |
| 20260905111752 | 23 | 165 | 0.0 | 1.6 | 0.00 | 0.00 | 0.00 | 91 | 1017.1 |
| 20260905111718 | 23 | 165 | 0.0 | 3.2 | 0.00 | 0.00 | 0.00 | 91 | 1017.1 |
| 20260905111706 | 23 | 165 | 0.0 | 3.2 | 0.00 | 0.00 | 0.00 | 91 | 1017.1 |
| 20260905111451 | 23 | 165 | 0.0 | 3.2 | 0.00 | 0.00 | 0.00 | 91 | 1017.1 |
| 20260905111351 | 23 | 165 | 0.0 | 3.2 | 0.00 | 0.00 | 0.00 | 91 | 1017.0 |
| 20260905111248 | 23 | 165 | 0.0 | 3.2 | 0.00 | 0.00 | 0.00 | 91 | 1017.0 |
| 20260905111149 | 23 | 165 | 0.0 | 3.2 | 0.00 | 0.00 | 0.00 | 91 | 1017.0 |
| 20260905111112 | 23 | 165 | 0.0 | 3.2 | 0.00 | 0.00 | 0.00 | 91 | 1017.0 |
| 20260905111107 | 23 | 165 | 0.0 | 3.2 | 0.00 | 0.00 | 0.00 | 90 | 1016.9 |
| 20260905111102 | 23 | 165 | 0.0 | 1.6 | 0.00 | 0.00 | 0.00 | 90 | 1017.0 |
| 20260905111052 | 23 | 165 | 0.0 | 3.2 | 0.00 | 0.00 | 0.00 | 91 | 1017.0 |
| 20260905111034 | 23 | 165 | 0.0 | 3.2 | 0.00 | 0.00 | 0.00 | 91 | 1017.0 |
| 20260905110613 | 23 | 165 | 0.0 | 1.6 | 0.00 | 0.00 | 0.00 | 90 | 1016.9 |
| 20260905110602 | 23 | 165 | 0.0 | 1.6 | 0.00 | 0.00 | 0.00 | 90 | 1017.0 |
| 20260905110345 | 23 | 165 | 0.0 | 0.0 | 0.00 | 0.00 | 0.00 | 89 | 1017.0 |
| 20260905110244 | 23 | 165 | 0.0 | 0.0 | 0.00 | 0.00 | 0.00 | 89 | 1017.0 |
| 20260905110144 | 23 | 165 | 0.0 | 0.0 | 0.00 | 0.00 | 0.00 | 89 | 1016.9 |
| 20260905110045 | 23 | 165 | 0.0 | 0.0 | 0.00 | 0.00 | 0.00 | 89 | 1016.9 |
| 20260905105945 | 23 | 165 | 0.0 | 0.0 | 0.00 | 0.00 | 0.00 | 89 | 1016.9 |
| 20260905105838 | 23 | 165 | 0.0 | 0.0 | 0.00 | 0.00 | 0.00 | 89 | 1016.9 |
| 20260905105739 | 23 | 165 | 0.0 | 0.0 | 0.00 | 0.00 | 0.00 | 89 | 1016.9 |
| 20260905105639 | 23 | 165 | 0.0 | 0.0 | 0.00 | 0.00 | 0.00 | 89 | 1017.0 |
| 20260905105539 | 23 | 165 | 0.0 | 0.0 | 0.00 | 0.00 | 0.00 | 89 | 1017.0 |
| 20260905105439 | 23 | 165 | 0.0 | 0.0 | 0.00 | 0.00 | 0.00 | 89 | 1016.9 |
| 20260905105340 | 23 | 165 | 0.0 | 0.0 | 0.00 | 0.00 | 0.00 | 89 | 1016.9 |
| 20260905105236 | 23 | 165 | 0.0 | 0.0 | 0.00 | 0.00 | 0.00 | 89 | 1016.9 |
| 20260905105137 | 23 | 165 | 0.0 | 0.0 | 0.00 | 0.00 | 0.00 | 89 | 1016.8 |
| 20260905105035 | 23 | 165 | 0.0 | 0.0 | 0.00 | 0.00 | 0.00 | 89 | 1016.9 |
| 20260905104933 | 23 | 165 | 0.0 | 0.0 | 0.00 | 0.00 | 0.00 | 89 | 1016.9 |
| 20260905104834 | 23 | 165 | 0.0 | 0.0 | 0.00 | 0.00 | 0.00 | 89 | 1016.9 |
| 20260905104730 | 23 | 165 | 0.0 | 0.0 | 0.00 | 0.00 | 0.00 | 89 | 1017.0 |
| 20260905104630 | 23 | 165 | 0.0 | 0.0 | 0.00 | 0.00 | 0.00 | 89 | 1016.8 |
| 20260905104556 | 23 | 165 | 0.0 | 0.0 | 0.00 | 0.00 | 0.00 | 89 | 1016.8 |
| 20260905104543 | 23 | 165 | 0.0 | 0.0 | 0.00 | 0.00 | 0.00 | 89 | 1016.9 |
| 20260905104327 | 23 | 165 | 0.0 | 0.0 | 0.00 | 0.00 | 0.00 | 89 | 1016.7 |
| 20260905104251 | 23 | 165 | 0.0 | 0.0 | 0.00 | 0.00 | 0.00 | 90 | 1016.7 |
| 20260905104240 | 23 | 165 | 0.0 | 0.0 | 0.00 | 0.00 | 0.00 | 90 | 1016.8 |
| 20260905104024 | 23 | 165 | 0.0 | 4.8 | 0.00 | 0.00 | 0.00 | 90 | 1016.7 |
| 20260905103950 | 23 | 165 | 0.0 | 4.8 | 0.00 | 0.00 | 0.00 | 90 | 1016.7 |
| 20260905103938 | 23 | 165 | 0.0 | 4.8 | 0.00 | 0.00 | 0.00 | 90 | 1016.8 |
| 20260905103723 | 23 | 165 | 0.0 | 4.8 | 0.00 | 0.00 | 0.00 | 90 | 1016.7 |
| 20260905103623 | 23 | 165 | 0.0 | 4.8 | 0.00 | 0.00 | 0.00 | 90 | 1016.7 |
| 20260905103521 | 23 | 165 | 0.0 | 4.8 | 0.00 | 0.00 | 0.00 | 90 | 1016.7 |
| 20260905103420 | 23 | 165 | 0.0 | 4.8 | 0.00 | 0.00 | 0.00 | 90 | 1016.7 |
| 20260905103319 | 23 | 165 | 0.0 | 4.8 | 0.00 | 0.00 | 0.00 | 90 | 1016.8 |
| 20260905103217 | 23 | 165 | 0.0 | 4.8 | 0.00 | 0.00 | 0.00 | 90 | 1016.8 |
| 20260905103117 | 23 | 165 | 0.0 | 4.8 | 0.00 | 0.00 | 0.00 | 90 | 1016.7 |
| 20260905103014 | 23 | 165 | 0.0 | 6.4 | 0.00 | 0.00 | 0.00 | 90 | 1016.7 |
| 20260905102915 | 23 | 165 | 0.0 | 6.4 | 0.00 | 0.00 | 0.00 | 90 | 1016.6 |
| 20260905102812 | 23 | 165 | 1.6 | 6.4 | 0.00 | 0.00 | 0.00 | 90 | 1016.8 |
| 20260905102711 | 23 | 165 | 1.6 | 6.4 | 0.00 | 0.00 | 0.00 | 90 | 1016.8 |
| 20260905102611 | 23 | 165 | 1.6 | 6.4 | 0.00 | 0.00 | 0.00 | 90 | 1016.8 |
| 20260905102508 | 23 | 165 | 1.6 | 6.4 | 0.00 | 0.00 | 0.00 | 90 | 1016.8 |
| 20260905102409 | 23 | 165 | 1.6 | 6.4 | 0.00 | 0.00 | 0.00 | 90 | 1016.8 |
| 20260905102308 | 23 | 165 | 1.6 | 6.4 | 0.00 | 0.00 | 0.00 | 90 | 1016.7 |
| 20260905102204 | 23 | 165 | 1.6 | 6.4 | 0.00 | 0.00 | 0.00 | 90 | 1016.8 |
| 20260905102104 | 23 | 165 | 1.6 | 6.4 | 0.00 | 0.00 | 0.00 | 90 | 1016.9 |
| 20260905102002 | 23 | 165 | 1.6 | 6.4 | 0.00 | 0.00 | 0.00 | 90 | 1016.8 |
| 20260905101903 | 23 | 165 | 1.6 | 6.4 | 0.00 | 0.00 | 0.00 | 90 | 1016.8 |
| 20260905101801 | 23 | 165 | 1.6 | 6.4 | 0.00 | 0.00 | 0.00 | 90 | 1016.8 |
| 20260905101658 | 23 | 165 | 1.6 | 6.4 | 0.00 | 0.00 | 0.00 | 90 | 1016.8 |
| 20260905101559 | 23 | 165 | 3.2 | 6.4 | 0.00 | 0.00 | 0.00 | 90 | 1016.7 |
| 20260905101457 | 23 | 165 | 1.6 | 6.4 | 0.00 | 0.00 | 0.00 | 90 | 1016.8 |
| 20260905101356 | 23 | 165 | 1.6 | 6.4 | 0.00 | 0.00 | 0.00 | 90 | 1016.7 |
| 20260905101256 | 23 | 165 | 3.2 | 6.4 | 0.00 | 0.00 | 0.00 | 90 | 1016.7 |
| 20260905101154 | 23 | 165 | 1.6 | 6.4 | 0.00 | 0.00 | 0.00 | 90 | 1016.7 |
| 20260905101120 | 23 | 165 | 3.2 | 6.4 | 0.00 | 0.00 | 0.00 | 90 | 1016.7 |
| 20260905101109 | 23 | 165 | 3.2 | 6.4 | 0.00 | 0.00 | 0.00 | 90 | 1016.7 |
| 20260905100854 | 23 | 165 | 3.2 | 6.4 | 0.00 | 0.00 | 0.00 | 90 | 1016.6 |
| 20260905100820 | 23 | 165 | 1.6 | 6.4 | 0.00 | 0.00 | 0.00 | 90 | 1016.7 |
| 20260905100810 | 23 | 165 | 3.2 | 6.4 | 0.00 | 0.00 | 0.00 | 90 | 1016.6 |
| 20260905100554 | 23 | 165 | 1.6 | 6.4 | 0.00 | 0.00 | 0.00 | 90 | 1016.6 |
| 20260905100455 | 23 | 165 | 1.6 | 6.4 | 0.00 | 0.00 | 0.00 | 90 | 1016.7 |
| 20260905100354 | 23 | 165 | 1.6 | 6.4 | 0.00 | 0.00 | 0.00 | 90 | 1016.6 |
| 20260905100254 | 23 | 165 | 1.6 | 6.4 | 0.00 | 0.00 | 0.00 | 90 | 1016.6 |
| 20260905100154 | 23 | 165 | 1.6 | 6.4 | 0.00 | 0.00 | 0.00 | 90 | 1016.7 |
| 20260905100122 | 23 | 165 | 1.6 | 6.4 | 0.00 | 0.00 | 0.00 | 90 | 1016.7 |
| 20260905100110 | 23 | 165 | 1.6 | 6.4 | 0.00 | 0.00 | 0.00 | 90 | 1016.7 |
| 20260905095850 | 23 | 167 | 1.6 | 6.4 | 0.00 | 0.00 | 0.00 | 90 | 1016.7 |
| 20260905095751 | 23 | 167 | 1.6 | 6.4 | 0.00 | 0.00 | 0.00 | 90 | 1016.6 |
| 20260905095717 | 23 | 167 | 1.6 | 6.4 | 0.00 | 0.00 | 0.00 | 90 | 1016.6 |
| 20260905095705 | 23 | 167 | 1.6 | 6.4 | 0.00 | 0.00 | 0.00 | 90 | 1016.6 |
| 20260905095450 | 23 | 167 | 1.6 | 6.4 | 0.00 | 0.00 | 0.00 | 90 | 1016.6 |
| 20260905095350 | 23 | 167 | 1.6 | 6.4 | 0.00 | 0.00 | 0.00 | 90 | 1016.7 |
| 20260905095316 | 23 | 167 | 1.6 | 6.4 | 0.00 | 0.00 | 0.00 | 90 | 1016.7 |
| 20260905095306 | 23 | 167 | 1.6 | 6.4 | 0.00 | 0.00 | 0.00 | 90 | 1016.7 |
| 20260905095051 | 23 | 167 | 1.6 | 6.4 | 0.00 | 0.00 | 0.00 | 90 | 1016.6 |
| 20260905094950 | 23 | 167 | 1.6 | 6.4 | 0.00 | 0.00 | 0.00 | 90 | 1016.6 |
| 20260905094850 | 23 | 167 | 1.6 | 6.4 | 0.00 | 0.00 | 0.00 | 90 | 1016.6 |
| 20260905094750 | 23 | 167 | 1.6 | 6.4 | 0.00 | 0.00 | 0.00 | 90 | 1016.6 |
| 20260905094718 | 23 | 167 | 1.6 | 6.4 | 0.00 | 0.00 | 0.00 | 90 | 1016.6 |
| 20260905094705 | 23 | 167 | 1.6 | 6.4 | 0.00 | 0.00 | 0.00 | 90 | 1016.6 |
| 20260905094450 | 23 | 167 | 1.6 | 4.8 | 0.00 | 0.00 | 0.00 | 90 | 1016.5 |
| 20260905094350 | 23 | 167 | 1.6 | 4.8 | 0.00 | 0.00 | 0.00 | 90 | 1016.4 |
| 20260905094249 | 23 | 167 | 1.6 | 4.8 | 0.00 | 0.00 | 0.00 | 90 | 1016.4 |
| 20260905094145 | 23 | 167 | 1.6 | 4.8 | 0.00 | 0.00 | 0.00 | 90 | 1016.4 |
| 20260905094045 | 23 | 167 | 1.6 | 4.8 | 0.00 | 0.00 | 0.00 | 90 | 1016.4 |
| 20260905093946 | 23 | 167 | 1.6 | 4.8 | 0.00 | 0.00 | 0.00 | 90 | 1016.4 |
| 20260905093908 | 23 | 167 | 1.6 | 4.8 | 0.00 | 0.00 | 0.00 | 91 | 1016.4 |
| 20260905093858 | 23 | 167 | 1.6 | 4.8 | 0.00 | 0.00 | 0.00 | 91 | 1016.4 |
| 20260905093643 | 23 | 168 | 1.6 | 3.2 | 0.00 | 0.00 | 0.00 | 91 | 1016.3 |
| 20260905093540 | 23 | 168 | 1.6 | 3.2 | 0.00 | 0.00 | 0.00 | 91 | 1016.4 |
| 20260905093441 | 23 | 168 | 1.6 | 3.2 | 0.00 | 0.00 | 0.00 | 91 | 1016.3 |
| 20260905093340 | 23 | 169 | 1.6 | 3.2 | 0.00 | 0.00 | 0.00 | 91 | 1016.4 |
| 20260905093240 | 23 | 168 | 1.6 | 3.2 | 0.00 | 0.00 | 0.00 | 91 | 1016.3 |
| 20260905093140 | 23 | 168 | 1.6 | 3.2 | 0.00 | 0.00 | 0.00 | 91 | 1016.3 |
| 20260905093041 | 23 | 168 | 1.6 | 3.2 | 0.00 | 0.00 | 0.00 | 91 | 1016.3 |
| 20260905092941 | 23 | 168 | 1.6 | 3.2 | 0.00 | 0.00 | 0.00 | 91 | 1016.3 |
| 20260905092841 | 23 | 168 | 1.6 | 3.2 | 0.00 | 0.00 | 0.00 | 91 | 1016.3 |
| 20260905092740 | 23 | 168 | 1.6 | 3.2 | 0.00 | 0.00 | 0.00 | 91 | 1016.3 |
| 20260905092640 | 23 | 168 | 1.6 | 3.2 | 0.00 | 0.00 | 0.00 | 90 | 1016.3 |
| 20260905092540 | 23 | 168 | 1.6 | 3.2 | 0.00 | 0.00 | 0.00 | 90 | 1016.3 |
| 20260905092441 | 23 | 168 | 1.6 | 3.2 | 0.00 | 0.00 | 0.00 | 90 | 1016.3 |
| 20260905092341 | 23 | 168 | 1.6 | 3.2 | 0.00 | 0.00 | 0.00 | 90 | 1016.2 |
| 20260905092238 | 23 | 168 | 1.6 | 3.2 | 0.00 | 0.00 | 0.00 | 90 | 1016.3 |
| 20260905092138 | 23 | 168 | 0.0 | 3.2 | 0.00 | 0.00 | 0.00 | 90 | 1016.4 |
| 20260905092038 | 23 | 168 | 0.0 | 3.2 | 0.00 | 0.00 | 0.00 | 90 | 1016.4 |
| 20260905091937 | 23 | 168 | 0.0 | 3.2 | 0.00 | 0.00 | 0.00 | 90 | 1016.4 |
| 20260905091836 | 23 | 168 | 0.0 | 3.2 | 0.00 | 0.00 | 0.00 | 90 | 1016.4 |
| 20260905091736 | 23 | 168 | 0.0 | 3.2 | 0.00 | 0.00 | 0.00 | 90 | 1016.3 |
| 20260905091636 | 23 | 168 | 0.0 | 3.2 | 0.00 | 0.00 | 0.00 | 90 | 1016.3 |
| 20260905091537 | 23 | 168 | 0.0 | 3.2 | 0.00 | 0.00 | 0.00 | 90 | 1016.3 |
| 20260905091436 | 23 | 168 | 0.0 | 1.6 | 0.00 | 0.00 | 0.00 | 90 | 1016.2 |
| 20260905091404 | 23 | 168 | 0.0 | 1.6 | 0.00 | 0.00 | 0.00 | 90 | 1016.3 |
| 20260905091352 | 23 | 168 | 0.0 | 1.6 | 0.00 | 0.00 | 0.00 | 90 | 1016.2 |
| 20260905091157 | 23 | 168 | 0.0 | 1.6 | 0.00 | 0.00 | 0.00 | 90 | 1016.2 |
| 20260905091152 | 23 | 168 | 0.0 | 1.6 | 0.00 | 0.00 | 0.00 | 90 | 1016.3 |
| 20260905091147 | 23 | 168 | 0.0 | 1.6 | 0.00 | 0.00 | 0.00 | 90 | 1016.3 |
| 20260905091138 | 23 | 168 | 0.0 | 1.6 | 0.00 | 0.00 | 0.00 | 90 | 1016.2 |
| 20260905091121 | 23 | 168 | 0.0 | 1.6 | 0.00 | 0.00 | 0.00 | 90 | 1016.2 |
| 20260905090636 | 23 | 168 | 0.0 | 3.2 | 0.00 | 0.00 | 0.00 | 90 | 1016.2 |
| 20260905090537 | 23 | 168 | 0.0 | 3.2 | 0.00 | 0.00 | 0.00 | 90 | 1016.3 |
| 20260905090436 | 23 | 168 | 0.0 | 3.2 | 0.00 | 0.00 | 0.00 | 90 | 1016.3 |
| 20260905090337 | 23 | 168 | 0.0 | 3.2 | 0.00 | 0.00 | 0.00 | 90 | 1016.3 |
| 20260905090302 | 23 | 168 | 0.0 | 3.2 | 0.00 | 0.00 | 0.00 | 90 | 1016.3 |
| 20260905090251 | 23 | 168 | 0.0 | 3.2 | 0.00 | 0.00 | 0.00 | 90 | 1016.3 |
| 20260905090037 | 23 | 168 | 0.0 | 3.2 | 0.00 | 0.00 | 0.00 | 90 | 1016.2 |
| 20260905085937 | 23 | 168 | 0.0 | 3.2 | 0.00 | 0.00 | 0.00 | 90 | 1016.2 |
| 20260905085836 | 23 | 168 | 0.0 | 3.2 | 0.00 | 0.00 | 0.00 | 90 | 1016.2 |
| 20260905085736 | 23 | 168 | 0.0 | 3.2 | 0.00 | 0.00 | 0.00 | 90 | 1016.2 |
| 20260905085635 | 23 | 168 | 0.0 | 3.2 | 0.00 | 0.00 | 0.00 | 90 | 1016.2 |
| 20260905085536 | 23 | 168 | 0.0 | 3.2 | 0.00 | 0.00 | 0.00 | 90 | 1016.2 |
| 20260905085437 | 23 | 168 | 0.0 | 3.2 | 0.00 | 0.00 | 0.00 | 90 | 1016.2 |
| 20260905085336 | 23 | 168 | 0.0 | 1.6 | 0.00 | 0.00 | 0.00 | 90 | 1016.2 |
| 20260905085237 | 23 | 168 | 0.0 | 1.6 | 0.00 | 0.00 | 0.00 | 90 | 1016.2 |
| 20260905085156 | 23 | 168 | 0.0 | 1.6 | 0.00 | 0.00 | 0.00 | 90 | 1016.2 |
| 20260905085146 | 23 | 168 | 0.0 | 1.6 | 0.00 | 0.00 | 0.00 | 90 | 1016.2 |
| 20260905084933 | 23 | 168 | 0.0 | 1.6 | 0.00 | 0.00 | 0.00 | 89 | 1016.2 |
| 20260905084832 | 23 | 168 | 0.0 | 1.6 | 0.00 | 0.00 | 0.00 | 89 | 1016.2 |
| 20260905084732 | 23 | 169 | 0.0 | 1.6 | 0.00 | 0.00 | 0.00 | 89 | 1016.1 |
| 20260905084631 | 23 | 168 | 0.0 | 1.6 | 0.00 | 0.00 | 0.00 | 89 | 1016.2 |
| 20260905084620 | 23 | 168 | 0.0 | 3.2 | 0.00 | 0.00 | 0.00 | 89 | 1016.2 |
| 20260905084616 | 24 | 168 | 1.6 | 3.2 | 0.00 | 0.00 | 0.00 | 89 | 1016.1 |
| 20260905084602 | 23 | 168 | 0.0 | 3.2 | 0.00 | 0.00 | 0.00 | 89 | 1016.2 |
| 20260905084232 | 23 | 168 | 1.6 | 6.4 | 0.00 | 0.00 | 0.00 | 89 | 1016.2 |
| 20260905084131 | 24 | 168 | 1.6 | 6.4 | 0.00 | 0.00 | 0.00 | 89 | 1016.2 |
| 20260905084033 | 23 | 168 | 1.6 | 6.4 | 0.00 | 0.00 | 0.00 | 89 | 1016.1 |
| 20260905083933 | 24 | 168 | 1.6 | 6.4 | 0.00 | 0.00 | 0.00 | 89 | 1016.2 |
| 20260905083831 | 24 | 168 | 1.6 | 6.4 | 0.00 | 0.00 | 0.00 | 90 | 1016.1 |
| 20260905083733 | 24 | 168 | 3.2 | 6.4 | 0.00 | 0.00 | 0.00 | 89 | 1016.1 |
| 20260905083633 | 24 | 168 | 3.2 | 6.4 | 0.00 | 0.00 | 0.00 | 90 | 1016.1 |
| 20260905083532 | 24 | 168 | 3.2 | 6.4 | 0.00 | 0.00 | 0.00 | 89 | 1016.2 |
| 20260905083433 | 24 | 168 | 3.2 | 6.4 | 0.00 | 0.00 | 0.00 | 90 | 1016.2 |
| 20260905083359 | 24 | 168 | 3.2 | 6.4 | 0.00 | 0.00 | 0.00 | 89 | 1016.2 |
| 20260905083347 | 24 | 168 | 3.2 | 6.4 | 0.00 | 0.00 | 0.00 | 90 | 1016.1 |
| 20260905083132 | 24 | 168 | 3.2 | 6.4 | 0.00 | 0.00 | 0.00 | 89 | 1016.2 |
| 20260905083032 | 24 | 168 | 3.2 | 6.4 | 0.00 | 0.00 | 0.00 | 89 | 1016.2 |
| 20260905082933 | 24 | 169 | 3.2 | 6.4 | 0.00 | 0.00 | 0.00 | 89 | 1016.3 |
| 20260905082832 | 24 | 169 | 3.2 | 6.4 | 0.00 | 0.00 | 0.00 | 89 | 1016.2 |
| 20260905082732 | 24 | 169 | 3.2 | 6.4 | 0.00 | 0.00 | 0.00 | 89 | 1016.3 |
| 20260905082632 | 24 | 170 | 3.2 | 6.4 | 0.00 | 0.00 | 0.00 | 89 | 1016.2 |
| 20260905082533 | 24 | 170 | 3.2 | 6.4 | 0.00 | 0.00 | 0.00 | 89 | 1016.2 |
| 20260905082431 | 24 | 170 | 3.2 | 6.4 | 0.00 | 0.00 | 0.00 | 89 | 1016.2 |
| 20260905082332 | 24 | 170 | 3.2 | 6.4 | 0.00 | 0.00 | 0.00 | 89 | 1016.3 |
| 20260905082233 | 24 | 170 | 3.2 | 6.4 | 0.00 | 0.00 | 0.00 | 89 | 1016.3 |
| 20260905082132 | 24 | 171 | 1.6 | 6.4 | 0.00 | 0.00 | 0.00 | 89 | 1016.2 |
| 20260905082032 | 24 | 172 | 1.6 | 4.8 | 0.00 | 0.00 | 0.00 | 89 | 1016.3 |
| 20260905081933 | 24 | 172 | 1.6 | 4.8 | 0.00 | 0.00 | 0.00 | 89 | 1016.2 |
| 20260905081828 | 24 | 172 | 1.6 | 4.8 | 0.00 | 0.00 | 0.00 | 89 | 1016.3 |
| 20260905081728 | 24 | 173 | 0.0 | 4.8 | 0.00 | 0.00 | 0.00 | 89 | 1016.4 |
| 20260905081628 | 24 | 173 | 0.0 | 3.2 | 0.00 | 0.00 | 0.00 | 89 | 1016.4 |
| 20260905081527 | 24 | 173 | 0.0 | 3.2 | 0.00 | 0.00 | 0.00 | 89 | 1016.4 |
| 20260905081424 | 24 | 173 | 0.0 | 4.8 | 0.00 | 0.00 | 0.00 | 88 | 1016.4 |
| 20260905081317 | 24 | 173 | 0.0 | 4.8 | 0.00 | 0.00 | 0.00 | 88 | 1016.4 |
| 20260905081219 | 24 | 173 | 0.0 | 4.8 | 0.00 | 0.00 | 0.00 | 88 | 1016.4 |
| 20260905081204 | 24 | 173 | 0.0 | 4.8 | 0.00 | 0.00 | 0.00 | 88 | 1016.4 |
| 20260905081159 | 24 | 173 | 0.0 | 4.8 | 0.00 | 0.00 | 0.00 | 88 | 1016.5 |
| 20260905081144 | 24 | 173 | 0.0 | 4.8 | 0.00 | 0.00 | 0.00 | 88 | 1016.4 |
| 20260905080815 | 24 | 173 | 0.0 | 4.8 | 0.00 | 0.00 | 0.00 | 88 | 1016.5 |
| 20260905080712 | 24 | 173 | 1.6 | 4.8 | 0.00 | 0.00 | 0.00 | 88 | 1016.5 |
| 20260905080613 | 24 | 173 | 1.6 | 4.8 | 0.00 | 0.00 | 0.00 | 88 | 1016.4 |
| 20260905080510 | 24 | 173 | 1.6 | 4.8 | 0.00 | 0.00 | 0.00 | 88 | 1016.5 |
| 20260905080409 | 24 | 173 | 1.6 | 4.8 | 0.00 | 0.00 | 0.00 | 88 | 1016.5 |
| 20260905080309 | 24 | 173 | 1.6 | 4.8 | 0.00 | 0.00 | 0.00 | 88 | 1016.5 |
| 20260905080205 | 25 | 173 | 1.6 | 4.8 | 0.00 | 0.00 | 0.00 | 88 | 1016.5 |
| 20260905080107 | 25 | 173 | 1.6 | 4.8 | 0.00 | 0.00 | 0.00 | 88 | 1016.4 |
| 20260905080006 | 25 | 173 | 1.6 | 4.8 | 0.00 | 0.00 | 0.00 | 87 | 1016.5 |
| 20260905075905 | 25 | 173 | 1.6 | 4.8 | 0.00 | 0.00 | 0.00 | 87 | 1016.4 |
| 20260905075806 | 25 | 173 | 1.6 | 4.8 | 0.00 | 0.00 | 0.00 | 87 | 1016.5 |
| 20260905075703 | 25 | 173 | 1.6 | 4.8 | 0.00 | 0.00 | 0.00 | 87 | 1016.5 |
| 20260905075629 | 25 | 173 | 1.6 | 4.8 | 0.00 | 0.00 | 0.00 | 87 | 1016.4 |
| 20260905075617 | 25 | 173 | 1.6 | 4.8 | 0.00 | 0.00 | 0.00 | 87 | 1016.5 |
| 20260905075402 | 25 | 173 | 0.0 | 4.8 | 0.00 | 0.00 | 0.00 | 87 | 1016.5 |
| 20260905075301 | 25 | 173 | 0.0 | 4.8 | 0.00 | 0.00 | 0.00 | 87 | 1016.4 |
| 20260905075158 | 25 | 173 | 0.0 | 4.8 | 0.00 | 0.00 | 0.00 | 87 | 1016.4 |
| 20260905075055 | 25 | 173 | 0.0 | 4.8 | 0.00 | 0.00 | 0.00 | 87 | 1016.4 |
| 20260905075020 | 25 | 173 | 0.0 | 4.8 | 0.00 | 0.00 | 0.00 | 86 | 1016.4 |
| 20260905075010 | 25 | 173 | 0.0 | 4.8 | 0.00 | 0.00 | 0.00 | 86 | 1016.5 |
| 20260905074753 | 25 | 173 | 0.0 | 4.8 | 0.00 | 0.00 | 0.00 | 86 | 1016.5 |
| 20260905074653 | 25 | 173 | 0.0 | 4.8 | 0.00 | 0.00 | 0.00 | 86 | 1016.5 |
| 20260905074616 | 25 | 173 | 1.6 | 4.8 | 0.00 | 0.00 | 0.00 | 86 | 1016.4 |
| 20260905074604 | 25 | 173 | 1.6 | 4.8 | 0.00 | 0.00 | 0.00 | 86 | 1016.5 |
| 20260905074348 | 25 | 173 | 1.6 | 4.8 | 0.00 | 0.00 | 0.00 | 86 | 1016.4 |
| 20260905074312 | 25 | 173 | 1.6 | 4.8 | 0.00 | 0.00 | 0.00 | 85 | 1016.5 |
| 20260905074300 | 25 | 173 | 1.6 | 4.8 | 0.00 | 0.00 | 0.00 | 85 | 1016.5 |
| 20260905074047 | 25 | 173 | 1.6 | 4.8 | 0.00 | 0.00 | 0.00 | 85 | 1016.5 |
| 20260905073944 | 25 | 173 | 1.6 | 4.8 | 0.00 | 0.00 | 0.00 | 84 | 1016.5 |
| 20260905073845 | 25 | 173 | 1.6 | 4.8 | 0.00 | 0.00 | 0.00 | 84 | 1016.4 |
| 20260905073742 | 25 | 173 | 1.6 | 4.8 | 0.00 | 0.00 | 0.00 | 84 | 1016.5 |
| 20260905073639 | 25 | 173 | 1.6 | 4.8 | 0.00 | 0.00 | 0.00 | 84 | 1016.5 |
| 20260905073603 | 25 | 195 | 0.0 | 4.8 | 0.00 | 0.00 | 0.00 | 84 | 1016.5 |
| 20260905073551 | 25 | 173 | 1.6 | 4.8 | 0.00 | 0.00 | 0.00 | 84 | 1016.5 |
| 20260905073421 | 25 | 198 | 0.0 | 4.8 | 0.00 | 0.00 | 0.00 | 84 | 1016.4 |
| 20260905073417 | 25 | 200 | 0.0 | 1.6 | 0.00 | 0.00 | 0.00 | 83 | 1016.5 |
| 20260905073402 | 25 | 195 | 0.0 | 4.8 | 0.00 | 0.00 | 0.00 | 84 | 1016.4 |
| 20260905073058 | 25 | 200 | 0.0 | 1.6 | 0.00 | 0.00 | 0.00 | 83 | 1016.5 |
| 20260905073046 | 25 | 200 | 0.0 | 1.6 | 0.00 | 0.00 | 0.00 | 83 | 1016.4 |
| 20260905072830 | 25 | 200 | 0.0 | 1.6 | 0.00 | 0.00 | 0.00 | 83 | 1016.5 |
| 20260905072731 | 25 | 200 | 0.0 | 1.6 | 0.00 | 0.00 | 0.00 | 83 | 1016.5 |
| 20260905072658 | 25 | 200 | 0.0 | 1.6 | 0.00 | 0.00 | 0.00 | 83 | 1016.4 |
| 20260905072646 | 25 | 200 | 0.0 | 1.6 | 0.00 | 0.00 | 0.00 | 83 | 1016.4 |
| 20260905072454 | 25 | 200 | 0.0 | 0.0 | 0.00 | 0.00 | 0.00 | 83 | 1016.4 |
| 20260905072443 | 25 | 200 | 0.0 | 0.0 | 0.00 | 0.00 | 0.00 | 83 | 1016.5 |
| 20260905072249 | 25 | 200 | 0.0 | 0.0 | 0.00 | 0.00 | 0.00 | 83 | 1016.5 |
| 20260905072238 | 25 | 200 | 0.0 | 0.0 | 0.00 | 0.00 | 0.00 | 83 | 1016.5 |
| 20260905072019 | 25 | 200 | 0.0 | 0.0 | 0.00 | 0.00 | 0.00 | 83 | 1016.5 |
| 20260905071918 | 25 | 200 | 0.0 | 0.0 | 0.00 | 0.00 | 0.00 | 83 | 1016.5 |
| 20260905071818 | 25 | 200 | 0.0 | 0.0 | 0.00 | 0.00 | 0.00 | 83 | 1016.6 |
| 20260905071718 | 25 | 200 | 0.0 | 0.0 | 0.00 | 0.00 | 0.00 | 83 | 1016.5 |
| 20260905071616 | 25 | 200 | 0.0 | 0.0 | 0.00 | 0.00 | 0.00 | 83 | 1016.6 |
| 20260905071517 | 25 | 200 | 0.0 | 0.0 | 0.00 | 0.00 | 0.00 | 83 | 1016.5 |
| 20260905071413 | 25 | 200 | 0.0 | 0.0 | 0.00 | 0.00 | 0.00 | 83 | 1016.5 |
| 20260905071315 | 25 | 200 | 0.0 | 0.0 | 0.00 | 0.00 | 0.00 | 83 | 1016.6 |
| 20260905071213 | 25 | 200 | 0.0 | 0.0 | 0.00 | 0.00 | 0.00 | 84 | 1016.6 |
| 20260905071110 | 25 | 200 | 0.0 | 0.0 | 0.00 | 0.00 | 0.00 | 84 | 1016.5 |
| 20260905071002 | 25 | 200 | 0.0 | 0.0 | 0.00 | 0.00 | 0.00 | 84 | 1016.5 |
| 20260905070900 | 25 | 200 | 0.0 | 0.0 | 0.00 | 0.00 | 0.00 | 84 | 1016.5 |
| 20260905070759 | 25 | 200 | 0.0 | 0.0 | 0.00 | 0.00 | 0.00 | 84 | 1016.5 |
| 20260905070726 | 25 | 200 | 0.0 | 0.0 | 0.00 | 0.00 | 0.00 | 83 | 1016.6 |
| 20260905070716 | 25 | 200 | 0.0 | 0.0 | 0.00 | 0.00 | 0.00 | 83 | 1016.5 |
| 20260905070520 | 25 | 200 | 0.0 | 0.0 | 0.00 | 0.00 | 0.00 | 82 | 1016.6 |
| 20260905070510 | 25 | 200 | 0.0 | 0.0 | 0.00 | 0.00 | 0.00 | 83 | 1016.5 |
| 20260905070254 | 25 | 200 | 0.0 | 0.0 | 0.00 | 0.00 | 0.00 | 82 | 1016.6 |
| 20260905070154 | 25 | 200 | 0.0 | 0.0 | 0.00 | 0.00 | 0.00 | 81 | 1016.6 |
| 20260905070054 | 25 | 200 | 0.0 | 0.0 | 0.00 | 0.00 | 0.00 | 80 | 1016.6 |
| 20260905065947 | 25 | 200 | 0.0 | 0.0 | 0.00 | 0.00 | 0.00 | 80 | 1016.6 |
| 20260905065847 | 25 | 200 | 0.0 | 0.0 | 0.00 | 0.00 | 0.00 | 80 | 1016.6 |
| 20260905065748 | 25 | 200 | 0.0 | 0.0 | 0.00 | 0.00 | 0.00 | 80 | 1016.6 |
| 20260905065714 | 25 | 200 | 0.0 | 0.0 | 0.00 | 0.00 | 0.00 | 81 | 1016.6 |
| 20260905065702 | 25 | 200 | 0.0 | 0.0 | 0.00 | 0.00 | 0.00 | 81 | 1016.5 |
| 20260905065437 | 25 | 200 | 0.0 | 0.0 | 0.00 | 0.00 | 0.00 | 81 | 1016.6 |
| 20260905065338 | 25 | 200 | 0.0 | 0.0 | 0.00 | 0.00 | 0.00 | 81 | 1016.6 |
| 20260905065238 | 25 | 200 | 0.0 | 0.0 | 0.00 | 0.00 | 0.00 | 81 | 1016.6 |
| 20260905065138 | 25 | 200 | 0.0 | 0.0 | 0.00 | 0.00 | 0.00 | 81 | 1016.7 |
| 20260905065037 | 25 | 200 | 0.0 | 0.0 | 0.00 | 0.00 | 0.00 | 81 | 1016.6 |
| 20260905064934 | 25 | 200 | 0.0 | 0.0 | 0.00 | 0.00 | 0.00 | 81 | 1016.6 |
| 20260905064832 | 25 | 200 | 0.0 | 0.0 | 0.00 | 0.00 | 0.00 | 81 | 1016.6 |
| 20260905064758 | 25 | 200 | 0.0 | 0.0 | 0.00 | 0.00 | 0.00 | 81 | 1016.7 |
| 20260905064747 | 25 | 200 | 0.0 | 0.0 | 0.00 | 0.00 | 0.00 | 81 | 1016.6 |
| 20260905064532 | 25 | 200 | 0.0 | 0.0 | 0.00 | 0.00 | 0.00 | 81 | 1016.6 |
| 20260905064453 | 25 | 200 | 0.0 | 0.0 | 0.00 | 0.00 | 0.00 | 80 | 1016.6 |
| 20260905064441 | 25 | 200 | 0.0 | 0.0 | 0.00 | 0.00 | 0.00 | 81 | 1016.7 |
| 20260905064227 | 25 | 200 | 0.0 | 0.0 | 0.00 | 0.00 | 0.00 | 80 | 1016.7 |
| 20260905064125 | 25 | 200 | 0.0 | 0.0 | 0.00 | 0.00 | 0.00 | 80 | 1016.7 |
| 20260905064047 | 25 | 200 | 0.0 | 0.0 | 0.00 | 0.00 | 0.00 | 80 | 1016.7 |
| 20260905064035 | 25 | 200 | 0.0 | 0.0 | 0.00 | 0.00 | 0.00 | 80 | 1016.7 |
| 20260905063816 | 25 | 200 | 0.0 | 0.0 | 0.00 | 0.00 | 0.00 | 80 | 1016.7 |
| 20260905063743 | 25 | 200 | 0.0 | 0.0 | 0.00 | 0.00 | 0.00 | 81 | 1016.8 |
| 20260905063731 | 25 | 200 | 0.0 | 0.0 | 0.00 | 0.00 | 0.00 | 80 | 1016.7 |
| 20260905063516 | 25 | 200 | 0.0 | 0.0 | 0.00 | 0.00 | 0.00 | 81 | 1016.6 |
| 20260905063415 | 25 | 200 | 0.0 | 0.0 | 0.00 | 0.00 | 0.00 | 81 | 1016.7 |
| 20260905063313 | 25 | 200 | 0.0 | 0.0 | 0.00 | 0.00 | 0.00 | 80 | 1016.8 |
| 20260905063215 | 25 | 200 | 0.0 | 0.0 | 0.00 | 0.00 | 0.00 | 80 | 1016.6 |
| 20260905063111 | 25 | 200 | 0.0 | 0.0 | 0.00 | 0.00 | 0.00 | 80 | 1016.7 |
| 20260905063036 | 25 | 200 | 0.0 | 0.0 | 0.00 | 0.00 | 0.00 | 80 | 1016.6 |
| 20260905063024 | 25 | 200 | 0.0 | 0.0 | 0.00 | 0.00 | 0.00 | 80 | 1016.6 |
| 20260905062808 | 25 | 200 | 0.0 | 0.0 | 0.00 | 0.00 | 0.00 | 80 | 1016.7 |
| 20260905062709 | 25 | 200 | 0.0 | 0.0 | 0.00 | 0.00 | 0.00 | 80 | 1016.7 |
| 20260905062605 | 25 | 200 | 0.0 | 0.0 | 0.00 | 0.00 | 0.00 | 80 | 1016.6 |
| 20260905062504 | 25 | 200 | 0.0 | 0.0 | 0.00 | 0.00 | 0.00 | 80 | 1016.6 |
| 20260905062400 | 25 | 200 | 0.0 | 0.0 | 0.00 | 0.00 | 0.00 | 80 | 1016.5 |
| 20260905062258 | 25 | 200 | 0.0 | 0.0 | 0.00 | 0.00 | 0.00 | 81 | 1016.6 |
| 20260905062155 | 25 | 200 | 0.0 | 0.0 | 0.00 | 0.00 | 0.00 | 80 | 1016.6 |
| 20260905062056 | 25 | 200 | 0.0 | 0.0 | 0.00 | 0.00 | 0.00 | 81 | 1016.6 |
| 20260905062018 | 25 | 200 | 0.0 | 0.0 | 0.00 | 0.00 | 0.00 | 80 | 1016.7 |
| 20260905062007 | 25 | 200 | 0.0 | 0.0 | 0.00 | 0.00 | 0.00 | 80 | 1016.7 |
| 20260905061752 | 25 | 200 | 0.0 | 0.0 | 0.00 | 0.00 | 0.00 | 81 | 1016.6 |
| 20260905061650 | 25 | 200 | 0.0 | 0.0 | 0.00 | 0.00 | 0.00 | 81 | 1016.6 |
| 20260905061550 | 25 | 200 | 0.0 | 0.0 | 0.00 | 0.00 | 0.00 | 81 | 1016.7 |
| 20260905061514 | 25 | 200 | 0.0 | 0.0 | 0.00 | 0.00 | 0.00 | 80 | 1016.6 |
| 20260905061503 | 25 | 200 | 0.0 | 0.0 | 0.00 | 0.00 | 0.00 | 81 | 1016.6 |
| 20260905061245 | 25 | 200 | 0.0 | 0.0 | 0.00 | 0.00 | 0.00 | 80 | 1016.6 |
| 20260905061145 | 25 | 200 | 0.0 | 0.0 | 0.00 | 0.00 | 0.00 | 80 | 1016.6 |
| 20260905061045 | 25 | 200 | 0.0 | 0.0 | 0.00 | 0.00 | 0.00 | 80 | 1016.5 |
| 20260905060942 | 25 | 200 | 0.0 | 0.0 | 0.00 | 0.00 | 0.00 | 80 | 1016.6 |
| 20260905060833 | 25 | 200 | 0.0 | 0.0 | 0.00 | 0.00 | 0.00 | 80 | 1016.5 |
| 20260905060732 | 25 | 200 | 0.0 | 0.0 | 0.00 | 0.00 | 0.00 | 80 | 1016.5 |
| 20260905060632 | 25 | 200 | 0.0 | 0.0 | 0.00 | 0.00 | 0.00 | 80 | 1016.5 |
| 20260905060532 | 25 | 200 | 0.0 | 0.0 | 0.00 | 0.00 | 0.00 | 80 | 1016.5 |
| 20260905060432 | 25 | 200 | 0.0 | 0.0 | 0.00 | 0.00 | 0.00 | 80 | 1016.4 |
| 20260905060357 | 25 | 200 | 0.0 | 0.0 | 0.00 | 0.00 | 0.00 | 80 | 1016.5 |
| 20260905060345 | 25 | 200 | 0.0 | 0.0 | 0.00 | 0.00 | 0.00 | 80 | 1016.5 |
| 20260905060153 | 25 | 200 | 0.0 | 0.0 | 0.00 | 0.00 | 0.00 | 80 | 1016.5 |
| 20260905060142 | 25 | 200 | 0.0 | 0.0 | 0.00 | 0.00 | 0.00 | 80 | 1016.6 |
| 20260905055926 | 25 | 200 | 0.0 | 0.0 | 0.00 | 0.00 | 0.00 | 80 | 1016.6 |
| 20260905055826 | 25 | 200 | 0.0 | 0.0 | 0.00 | 0.00 | 0.00 | 80 | 1016.7 |
| 20260905055723 | 25 | 200 | 0.0 | 0.0 | 0.00 | 0.00 | 0.00 | 80 | 1016.6 |
| 20260905055625 | 25 | 200 | 0.0 | 0.0 | 0.00 | 0.00 | 0.00 | 80 | 1016.7 |
| 20260905055521 | 25 | 200 | 0.0 | 0.0 | 0.00 | 0.00 | 0.00 | 80 | 1016.6 |
| 20260905055447 | 25 | 200 | 0.0 | 0.0 | 0.00 | 0.00 | 0.00 | 80 | 1016.7 |
| 20260905055436 | 25 | 200 | 0.0 | 0.0 | 0.00 | 0.00 | 0.00 | 80 | 1016.6 |
| 20260905055218 | 25 | 200 | 0.0 | 0.0 | 0.00 | 0.00 | 0.00 | 80 | 1016.6 |
| 20260905055115 | 25 | 200 | 0.0 | 0.0 | 0.00 | 0.00 | 0.00 | 80 | 1016.7 |
| 20260905055016 | 25 | 200 | 0.0 | 0.0 | 0.00 | 0.00 | 0.00 | 80 | 1016.8 |
| 20260905054916 | 25 | 200 | 0.0 | 0.0 | 0.00 | 0.00 | 0.00 | 80 | 1016.7 |
| 20260905054813 | 25 | 200 | 0.0 | 0.0 | 0.00 | 0.00 | 0.00 | 80 | 1016.7 |
| 20260905054713 | 25 | 200 | 0.0 | 0.0 | 0.00 | 0.00 | 0.00 | 80 | 1016.7 |
| 20260905054610 | 25 | 200 | 0.0 | 0.0 | 0.00 | 0.00 | 0.00 | 80 | 1016.7 |
| 20260905054510 | 25 | 200 | 0.0 | 0.0 | 0.00 | 0.00 | 0.00 | 80 | 1016.7 |
| 20260905054411 | 25 | 200 | 0.0 | 0.0 | 0.00 | 0.00 | 0.00 | 80 | 1016.7 |
| 20260905054332 | 25 | 200 | 0.0 | 0.0 | 0.00 | 0.00 | 0.00 | 80 | 1016.8 |
| 20260905054321 | 25 | 200 | 0.0 | 0.0 | 0.00 | 0.00 | 0.00 | 80 | 1016.7 |
| 20260905054130 | 25 | 200 | 0.0 | 0.0 | 0.00 | 0.00 | 0.00 | 81 | 1016.7 |
| 20260905054118 | 25 | 200 | 0.0 | 0.0 | 0.00 | 0.00 | 0.00 | 81 | 1016.7 |
| 20260905053933 | 25 | 200 | 0.0 | 0.0 | 0.00 | 0.00 | 0.00 | 82 | 1016.8 |
| 20260905053921 | 25 | 200 | 0.0 | 0.0 | 0.00 | 0.00 | 0.00 | 81 | 1016.6 |
| 20260905053704 | 25 | 200 | 0.0 | 0.0 | 0.00 | 0.00 | 0.00 | 82 | 1016.8 |
| 20260905053604 | 25 | 200 | 0.0 | 0.0 | 0.00 | 0.00 | 0.00 | 82 | 1016.8 |
| 20260905053501 | 25 | 200 | 0.0 | 0.0 | 0.00 | 0.00 | 0.00 | 81 | 1016.9 |
| 20260905053403 | 25 | 200 | 0.0 | 0.0 | 0.00 | 0.00 | 0.00 | 81 | 1016.9 |
| 20260905053300 | 25 | 200 | 0.0 | 0.0 | 0.00 | 0.00 | 0.00 | 80 | 1016.8 |
| 20260905053158 | 25 | 200 | 0.0 | 0.0 | 0.00 | 0.00 | 0.00 | 80 | 1016.8 |
| 20260905053057 | 25 | 200 | 0.0 | 0.0 | 0.00 | 0.00 | 0.00 | 80 | 1016.8 |
| 20260905052957 | 25 | 200 | 0.0 | 0.0 | 0.00 | 0.00 | 0.00 | 80 | 1016.8 |
| 20260905052856 | 25 | 200 | 0.0 | 0.0 | 0.00 | 0.00 | 0.00 | 80 | 1016.7 |
| 20260905052754 | 25 | 200 | 0.0 | 0.0 | 0.00 | 0.00 | 0.00 | 80 | 1016.8 |
| 20260905052651 | 25 | 200 | 0.0 | 0.0 | 0.00 | 0.00 | 0.00 | 80 | 1016.8 |
| 20260905052551 | 25 | 200 | 0.0 | 0.0 | 0.00 | 0.00 | 0.00 | 80 | 1016.7 |
| 20260905052451 | 25 | 200 | 0.0 | 0.0 | 0.00 | 0.00 | 0.00 | 80 | 1016.7 |
| 20260905052349 | 25 | 200 | 0.0 | 0.0 | 0.00 | 0.00 | 0.00 | 80 | 1016.7 |
| 20260905052250 | 25 | 200 | 0.0 | 0.0 | 0.00 | 0.00 | 0.00 | 81 | 1016.7 |
| 20260905052150 | 25 | 200 | 0.0 | 0.0 | 0.00 | 0.00 | 0.00 | 81 | 1016.8 |
| 20260905052051 | 25 | 200 | 0.0 | 0.0 | 0.00 | 0.00 | 0.00 | 81 | 1016.7 |
| 20260905051950 | 25 | 200 | 0.0 | 0.0 | 0.00 | 0.00 | 0.00 | 81 | 1016.7 |
| 20260905051914 | 25 | 200 | 0.0 | 0.0 | 0.00 | 0.00 | 0.00 | 82 | 1016.8 |
| 20260905051903 | 25 | 200 | 0.0 | 0.0 | 0.00 | 0.00 | 0.00 | 81 | 1016.8 |
| 20260905051651 | 25 | 200 | 0.0 | 0.0 | 0.00 | 0.00 | 0.00 | 82 | 1016.8 |
| 20260905051549 | 25 | 200 | 0.0 | 0.0 | 0.00 | 0.00 | 0.00 | 82 | 1016.8 |
| 20260905051450 | 25 | 200 | 0.0 | 0.0 | 0.00 | 0.00 | 0.00 | 82 | 1016.8 |
| 20260905051348 | 25 | 200 | 0.0 | 0.0 | 0.00 | 0.00 | 0.00 | 82 | 1016.8 |
| 20260905051247 | 25 | 200 | 0.0 | 0.0 | 0.00 | 0.00 | 0.00 | 82 | 1016.8 |
| 20260905051147 | 25 | 200 | 0.0 | 0.0 | 0.00 | 0.00 | 0.00 | 83 | 1016.8 |
| 20260905051046 | 25 | 200 | 0.0 | 0.0 | 0.00 | 0.00 | 0.00 | 83 | 1016.9 |
| 20260905050946 | 25 | 200 | 0.0 | 0.0 | 0.00 | 0.00 | 0.00 | 83 | 1016.8 |
| 20260905050845 | 25 | 200 | 0.0 | 0.0 | 0.00 | 0.00 | 0.00 | 83 | 1016.8 |
| 20260905050745 | 25 | 200 | 0.0 | 0.0 | 0.00 | 0.00 | 0.00 | 83 | 1016.8 |
| 20260905050645 | 25 | 200 | 0.0 | 0.0 | 0.00 | 0.00 | 0.00 | 83 | 1016.8 |
| 20260905050545 | 25 | 200 | 0.0 | 0.0 | 0.00 | 0.00 | 0.00 | 83 | 1016.9 |
| 20260905050446 | 25 | 200 | 0.0 | 0.0 | 0.00 | 0.00 | 0.00 | 83 | 1016.8 |
| 20260905050341 | 25 | 200 | 0.0 | 0.0 | 0.00 | 0.00 | 0.00 | 83 | 1016.9 |
| 20260905050328 | 25 | 200 | 0.0 | 0.0 | 0.00 | 0.00 | 0.00 | 83 | 1016.9 |
| 20260905050323 | 25 | 200 | 0.0 | 0.0 | 0.00 | 0.00 | 0.00 | 83 | 1017.0 |
| 20260905050310 | 25 | 200 | 0.0 | 0.0 | 0.00 | 0.00 | 0.00 | 83 | 1016.9 |
| 20260905045941 | 25 | 200 | 0.0 | 0.0 | 0.00 | 0.00 | 0.00 | 83 | 1016.9 |
| 20260905045836 | 25 | 200 | 0.0 | 0.0 | 0.00 | 0.00 | 0.00 | 83 | 1016.9 |
| 20260905045735 | 25 | 200 | 0.0 | 0.0 | 0.00 | 0.00 | 0.00 | 83 | 1016.9 |
| 20260905045635 | 25 | 200 | 0.0 | 0.0 | 0.00 | 0.00 | 0.00 | 82 | 1016.9 |
| 20260905045536 | 25 | 200 | 0.0 | 0.0 | 0.00 | 0.00 | 0.00 | 82 | 1016.9 |
| 20260905045435 | 25 | 200 | 0.0 | 0.0 | 0.00 | 0.00 | 0.00 | 83 | 1016.8 |
| 20260905045402 | 25 | 200 | 0.0 | 0.0 | 0.00 | 0.00 | 0.00 | 83 | 1016.9 |
| 20260905045350 | 25 | 200 | 0.0 | 0.0 | 0.00 | 0.00 | 0.00 | 83 | 1016.9 |
| 20260905045133 | 25 | 200 | 0.0 | 0.0 | 0.00 | 0.00 | 0.00 | 83 | 1016.9 |
| 20260905045034 | 25 | 200 | 0.0 | 0.0 | 0.00 | 0.00 | 0.00 | 83 | 1016.9 |
| 20260905044934 | 25 | 200 | 0.0 | 0.0 | 0.00 | 0.00 | 0.00 | 82 | 1016.8 |
| 20260905044833 | 25 | 200 | 0.0 | 0.0 | 0.00 | 0.00 | 0.00 | 83 | 1016.8 |
| 20260905044818 | 25 | 200 | 0.0 | 0.0 | 0.00 | 0.00 | 0.00 | 82 | 1016.8 |
| 20260905044813 | 25 | 200 | 0.0 | 0.0 | 0.00 | 0.00 | 0.00 | 82 | 1016.8 |
| 20260905044800 | 25 | 200 | 0.0 | 0.0 | 0.00 | 0.00 | 0.00 | 82 | 1016.8 |